     2.00           OBSERVATION DATA    G (GPS)             RINEX VERSION / TYPE
teqc 1998Oct7 Victoria Andreatta 19981202 22:10:47UTC       PGM / RUN BY / DATE
Linux 2.0.30|PentPro|gcc|Linux|486/DX+                      COMMENT
                                                            MARKER NAME
                                                            OBSERVER / AGENCY
0 TURBOROGUE 98.05.13                                       REC # / TYPE / VERS
unknown unknown                                             ANT # / TYPE
 -1286059.5178 -4719347.0664  4082023.9646                  APPROX POSITION XYZ
        0.0000        0.0000        0.0000                  ANTENNA: DELTA H/E/N
     1     1                                                WAVELENGTH FACT L1/2
     5    L1    L2    C1    P2    P1                        # / TYPES OF OBSERV
SNR is mapped to RINEX snr flag value [1,4-9]               COMMENT
SNR: >316 >100 >31.6 >10 >3.2 >0 bad=0                      COMMENT
L1 & L2: 9 8 7 6 5 4 1                                      COMMENT
  1998    12     2     0     0    0.000000      GPS         TIME OF FIRST OBS
                                                            END OF HEADER
 98 12  2  0  0  0.0000000  0  9G 2G13G27G26G15G18G 7G19G31
 -14870126.084 9 -11587077.885 6  21748014.283    21748012.492
 -19368786.653 7 -15092527.370 6  21490943.609    21490943.143
 -28242133.000 9 -22006807.289 9  20211477.407    20211476.130
  -1496541.171 4  -1166133.237 4  24515361.677    24515357.862
  -6155392.165 4  -4796394.723 4  23763648.174    23763643.419
  -4048436.635 4  -3154605.532 4  24466804.290    24466798.828
  -6372589.769 4  -4965634.972 4  23726523.547    23726516.815
 -23144665.926 9 -18034754.552 8  20949736.384    20949735.208
 -14572009.094 5 -11354760.111 4  22570135.847    22570134.874
 98 12  2  0  0 30.0000000  0  9G 2G13G27G26G15G18G 7G19G31
 -14914089.667 9 -11621335.153 6  21739648.193    21739646.363
 -19325370.033 7 -15058696.221 6  21499205.478    21499205.131
 -28273061.017 9 -22030907.003 9  20205592.041    20205590.680
  -1576652.903 4  -1228557.793 4  24500116.512    24500113.300
  -6234782.975 4  -4858257.506 4  23748540.482    23748536.208
  -3933955.313 4  -3065399.346 4  24488588.965    24488583.233
  -6475538.559 4  -5045854.602 4  23706932.739    23706926.446
 -23092273.897 9 -17993929.574 8  20959706.403    20959704.984
 -14482317.754 5 -11284870.735 4  22587203.176    22587202.158
 98 12  2  0  1  0.0000000  0  9G 2G13G27G26G15G18G 7G19G31
 -14957888.784 9 -11655464.266 6  21731313.499    21731311.699
 -19281393.908 7 -15024429.097 6  21507573.618    21507573.839
 -28303586.471 9 -22054693.034 9  20199783.151    20199781.905
  -1656437.742 4  -1290727.626 4  24484933.628    24484930.546
  -6313927.065 4  -4919928.050 4  23733479.632    23733475.563
  -3819457.251 4  -2976180.088 4  24510377.648    24510372.158
  -6578341.091 4  -5125960.277 4  23687369.783    23687363.573
 -23039460.483 9 -17952776.248 7  20969756.391    20969754.881
 -14392274.707 5 -11214707.294 4  22604337.586    22604337.014
 98 12  2  0  1 30.0000000  0  9G 2G27G26G15G18G 7G13G19G31
 -15001547.390 9 -11689483.888 6  21723005.397    21723003.699
 -28333717.858 9 -22078171.997 9  20194049.244    20194048.114
  -1735895.626 4  -1352642.711 4  24469813.225    24469809.934
  -6392828.890 4  -4981409.831 4  23718464.758    23718461.041
  -3704948.326 4  -2886952.392 4  24532167.146    24532161.088
  -6680996.086 4  -5205950.990 4  23667834.589    23667829.126
 -19236864.507 7 -14989730.847 6  21516047.108    21516047.714
 -22986231.631 9 -17911299.194 7  20979885.476    20979884.073
 -14301915.586 5 -11144297.564 4  22621532.287    22621531.506
 98 12  2  0  2  0.0000000  0  9G 2G27G26G15G18G 7G13G19G31
 -15045052.080 9 -11723383.575 6  21714726.683    21714724.885
 -28363442.449 9 -22101333.973 9  20188392.861    20188391.681
  -1815004.718 4  -1414285.991 4  24454759.268    24454755.365
  -6471472.447 4  -5042690.366 4  23703499.338    23703495.512
  -3590439.295 4  -2797724.596 4  24553957.496    24553951.469
  -6783497.640 4  -5285822.147 4  23648328.944    23648323.866
 -19191797.172 7 -14954613.434 6  21524623.122    21524623.648
 -22932579.468 9 -17869492.280 7  20990094.966    20990093.783
 -14211256.852 5 -11073654.363 4  22638783.932    22638783.788
 98 12  2  0  2 30.0000000  0  9G 2G27G26G15G18G 7G13G19G31
 -15088407.776 9 -11757167.160 6  21706476.197    21706474.506
 -28392753.240 9 -22124173.506 9  20182815.244    20182814.038
  -1893765.352 4  -1475657.770 4  24439771.096    24439767.879
  -6549857.857 4  -5103769.754 4  23688583.137    23688579.182
  -3475942.495 4  -2708506.327 4  24575746.820    24575740.371
  -6885852.489 4  -5365578.972 4  23628851.003    23628846.444
 -19146215.128 7 -14919094.956 6  21533297.253    21533297.418
 -22878517.556 9 -17827366.087 7  21000382.493    21000381.380
 -14120312.110 5 -11002788.300 4  22656090.058    22656089.901
 98 12  2  0  3  0.0000000  0  9G 2G27G26G15G18G 7G13G19G31
 -15131611.060 9 -11790831.983 6  21698254.695    21698253.140
 -28421634.611 9 -22146678.428 9  20177319.200    20177318.119
  -1972167.415 4  -1536750.149 4  24424851.386    24424848.098
  -6627979.600 4  -5164643.689 4  23673716.732    23673713.064
  -3361467.704 4  -2619305.236 4  24597529.842    24597522.691
  -6988050.255 4  -5445213.404 4  23609403.458    23609399.010
 -19100115.473 7 -14883173.141 6  21542069.800    21542069.762
 -22824057.037 9 -17784929.300 6  21010745.940    21010744.883
 -14029081.462 5 -10931699.454 4  22673450.745    22673450.384
 98 12  2  0  3 30.0000000  0  9G 2G27G26G15G18G 7G13G19G31
 -15174647.513 9 -11824366.809 7  21690064.990    21690063.495
 -28450087.421 9 -22168849.407 9  20171904.468    20171903.599
  -2050216.267 4  -1597567.312 4  24409998.408    24409995.304
  -6705837.848 4  -5225312.314 4  23658900.307    23658896.968
  -3247029.848 4  -2530132.874 4  24619306.867    24619300.622
  -7090087.669 4  -5524722.879 4  23589986.297    23589981.911
 -19053504.306 7 -14846852.745 6  21550939.570    21550939.504
 -22769215.065 8 -17742195.276 6  21021182.056    21021180.926
 -13937550.187 5 -10860376.355 4  22690868.401    22690868.169
 98 12  2  0  4  0.0000000  0  9G 2G27G26G15G18G 7G13G19G31
 -15217518.958 9 -11857773.057 7  21681906.695    21681905.222
 -28478110.250 9 -22190685.335 9  20166571.849    20166570.959
  -2127915.043 4  -1658111.686 4  24395213.376    24395209.962
  -6783431.028 4  -5285774.396 4  23644134.433    23644131.288
  -3132636.026 4  -2440994.845 4  24641075.996    24641066.916
  -7191973.872 4  -5604114.515 4  23570598.093    23570593.299
 -19006398.022 7 -14810146.542 6  21559903.649    21559903.616
 -22714005.727 9 -17699174.992 6  21031688.014    21031686.950
 -13845692.602 5 -10788798.985 4  22708348.256    22708348.074
 98 12  2  0  4 30.0000000  0  9G 2G27G26G15G18G 7G13G19G31
 -15260226.689 9 -11891051.732 7  21673779.706    21673778.354
 -28505694.309 9 -22212179.366 9  20161322.787    20161321.844
  -2205253.444 4  -1718375.247 4  24380495.987    24380492.606
  -6860750.035 4  -5346022.835 4  23629421.124    23629417.693
  -3018285.842 4  -2351890.824 4  24662836.082    24662827.626
  -7293704.688 4  -5683385.063 4  23551239.352    23551234.662
 -18958779.140 7 -14773040.913 6  21568965.205    21568965.239
 -22658424.497 9 -17655864.929 6  21042265.045    21042263.831
 -13753490.821 5 -10716953.412 4  22725893.660    22725893.171
 98 12  2  0  5  0.0000000  0  9G 2G27G26G15G18G 7G13G19G31
 -15302755.040 9 -11924190.634 7  21665686.609    21665685.198
 -28532842.646 9 -22233333.874 9  20156156.691    20156155.744
  -2282229.407 4  -1778356.393 4  24365847.258    24365845.288
  -6937788.071 4  -5406052.337 4  23614760.895    23614757.920
  -2903978.542 4  -2262820.178 4  24684587.323    24684580.175
  -7395273.859 4  -5762529.646 4  23531911.198    23531906.631
 -18910632.742 7 -14735524.235 6  21578127.206    21578127.053
 -22602451.283 9 -17612249.430 6  21052916.417    21052915.258
 -13660945.449 5 -10644840.104 4  22743504.432    22743504.177
 98 12  2  0  5 30.0000000  0  9G 2G27G26G15G18G 7G13G19G31
 -15345117.950 9 -11957200.622 7  21657625.223    21657623.695
 -28559570.458 9 -22254160.702 9  20151070.549    20151069.667
  -2358867.931 4  -1838074.601 4  24351264.351    24351261.200
  -7014553.066 4  -5465869.075 4  23600152.911    23600149.755
  -2789711.042 4  -2173780.540 4  24706332.553    24706324.506
  -7496686.950 4  -5841552.621 4  23512612.918    23512608.112
 -18861980.591 7 -14697613.465 6  21587385.343    21587385.234
 -22546082.788 9 -17568325.922 6  21063642.871    21063641.911
 -13568076.595 5 -10572474.738 4  22761176.857    22761176.175
 98 12  2  0  6  0.0000000  0  9G 2G27G26G15G18G 7G13G19G31
 -15387319.901 9 -11990085.189 7  21649594.454    21649592.991
 -28585876.962 9 -22274659.236 9  20146064.508    20146063.672
  -2435179.832 4  -1897538.284 4  24336742.524    24336739.617
  -7091044.289 4  -5525472.477 4  23585597.097    23585594.017
  -2675483.576 4  -2084772.129 4  24728069.677    24728060.955
  -7597948.134 4  -5920457.218 4  23493343.203    23493338.539
 -18812830.986 7 -14659315.068 6  21596738.171    21596738.163
 -22489312.087 9 -17524088.992 6  21074445.869    21074445.055
 -13474908.701 5 -10499876.347 4  22778905.885    22778905.487
 98 12  2  0  6 30.0000000  0  9G 2G27G26G15G18G 7G13G19G31
 -15429349.448 9 -12022835.419 7  21641596.379    21641594.982
 -28611761.796 9 -22294829.195 9  20141138.680    20141137.834
  -2511158.474 4  -1956742.286 4  24322284.175    24322281.629
  -7167258.320 4  -5584859.892 4  23571093.252    23571091.158
  -2561297.568 4  -1995795.991 4  24749797.727    24749790.137
  -7699042.238 4  -5999231.636 4  23474105.294    23474100.819
 -18763181.213 7 -14620626.923 6  21606186.299    21606186.317
 -22432134.418 9 -17479534.957 6  21085326.362    21085325.615
 -13381472.802 5 -10427069.125 4  22796686.186    22796685.412
 98 12  2  0  7  0.0000000  0  9G 2G27G26G15G18G 7G13G19G31
 -15471187.346 9 -12055436.315 7  21633634.881    21633633.473
 -28637209.581 9 -22314658.595 9  20136296.175    20136295.302
  -2586789.587 4  -2015675.493 4  24307891.616    24307889.242
  -7243174.750 4  -5644015.419 4  23556646.921    23556644.494
  -2447124.959 4  -1906830.320 4  24771524.040    24771517.521
  -7799936.088 4  -6077850.029 4  23454905.282    23454901.014
 -18713019.051 7 -14581539.514 6  21615732.010    21615731.667
 -22374539.476 9 -17434655.777 6  21096286.269    21096285.591
 -13287760.521 5 -10354046.543 4  22814518.956    22814518.684
 98 12  2  1  3  0.0000000  0  8G 7G26G15G13G19G27G 2G31
         0.35717         0.32316  21590615.553    21590612.214
        -0.18715        -0.52514  23222971.525    23222969.520
         0.24915        -0.19314  22423562.338    22423560.499
         0.44314        -0.37914  23193162.291    23193160.908
         0.04314        -0.30215  22757878.060    22757874.755
         0.22619        -0.31319  20185145.762    20185144.269
         0.25419         0.39318  20944555.869    20944554.272
        -0.23314        -0.96914  25050427.146    25050428.337
 98 12  2  1  3 30.0000000  0  7G 7G26G15G13G19G27G 2
    -70348.137 7    -54816.631 6  21577228.427    21577225.351
    -22575.271 5    -17591.441 4  23218675.445    23218673.426
    -24346.082 5    -18971.321 4  22418929.455    22418927.196
     92254.486 5     71885.885 4  23210717.655    23210716.328
     96187.460 4     74950.893 5  22776181.977    22776178.743
     32414.126 9     25257.272 9  20191313.969    20191312.461
    -22068.493 9    -17196.004 8  20940356.450    20940354.884
 98 12  2  1  4  0.0000000  0  7G 7G26G15G13G19G 2G27
   -140919.254 7   -109807.059 6  21563798.798    21563796.222
    -45119.877 5    -35158.614 4  23214385.250    23214383.073
    -48631.087 5    -37894.662 4  22414308.024    22414305.687
    184197.142 5    143529.507 4  23228213.949    23228212.446
    192108.160 4    149694.260 5  22794435.094    22794431.743
    -44482.122 9    -34661.141 8  20936091.276    20936089.572
     64831.253 9     50517.380 9  20197482.663    20197481.204
 98 12  2  1  4 30.0000000  0  8G 7G26G15G13G19G 2G27G31
   -211256.704 7   -164615.411 6  21550413.858    21550411.596
    -67190.489 5    -52356.445 4  23210184.824    23210183.089
    -72421.057 5    -56432.263 4  22409780.835    22409778.473
    276280.445 5    215282.729 4  23245736.973    23245735.444
    288197.022 4    224568.675 5  22812720.190    22812717.323
    -66828.743 9    -52074.064 8  20931838.827    20931837.161
     97677.895 9     76112.174 9  20203733.140    20203731.654
        -0.46214        -0.17314  25113654.158    25113652.268
 98 12  2  1  5  0.0000000  0  7G 7G26G15G13G19G 2G27
   -281186.675 7   -219106.246 6  21537106.437    21537104.366
    -88650.830 5    -69078.736 4  23206101.038    23206099.059
    -95567.962 5    -74468.778 4  22405376.042    22405373.688
    368652.641 5    287261.060 4  23263314.867    23263313.270
    384609.761 4    299695.460 4  22831067.044    22831064.275
    -88958.481 9    -69317.987 8  20927627.634    20927626.003
    131108.796 9    102162.226 9  20210094.772    20210093.137
 98 12  2  1  5 30.0000000  0  8G 7G26G15G 2G27G13G19G31
   -350700.203 7   -273272.578 6  21523878.502    21523876.297
   -109522.082 5    -85341.997 4  23202129.600    23202127.681
   -118080.528 5    -92011.012 4  22401092.002    22401089.832
   -110879.265 9    -86399.089 8  20923456.333    20923454.686
    165116.605 9    128661.819 9  20216566.285    20216564.666
    461306.728 5    359459.044 4  23280946.412    23280944.882
    481355.172 4    375081.475 4  22849477.116    22849474.524
        -0.45814        -0.48514  25155758.520    25155755.737
 98 12  2  1  6  0.0000000  0  7G 7G26G15G13G19G 2G27
   -419808.924 7   -327123.476 6  21510727.358    21510725.164
   -129832.912 5   -101168.566 4  23198264.342    23198262.849
   -139989.925 5   -109083.239 4  22396923.015    22396920.472
    554200.195 5    431843.557 4  23298623.441    23298621.904
    578398.765 5    450699.842 4  22867943.699    22867941.340
   -132619.017 9   -103339.125 8  20919319.250    20919317.659
    199680.270 9    155594.552 9  20223143.524    20223142.069
 98 12  2  1  6 30.0000000  0  7G 7G26G15G13G19G 2G27
   -488519.223 7   -380663.918 6  21497652.189    21497649.985
   -149603.166 5   -116573.904 4  23194502.135    23194500.770
   -161304.119 5   -125691.673 4  22392867.219    22392864.722
    647306.612 5    504394.001 4  23316340.755    23316339.375
    675719.677 5    526534.295 4  22886463.167    22886460.974
   -154150.831 9   -120117.132 8  20915221.864    20915220.243
    234800.825 9    182961.222 9  20229826.843    20229825.271
 98 12  2  1 10  0.0000000  0  5G 7G15G13G 2G27
         0.32417        -0.47717  21407907.823    21407905.611
        -0.15715        -0.30314  22367514.024    22367511.634
        -0.72515        -0.00714  23441128.586    23441127.932
        -0.62419        -0.98119  20887499.470    20887497.252
        -0.66619        -0.91619  20279435.186    20279433.746
 98 12  2  1 10 30.0000000  0  7G 7G26G15G13G19G 2G27
    -65855.317 7    -51316.514 8  21395375.857    21395373.412
        -0.77815        -0.69914  23167921.815    23167920.650
    -16492.139 5    -12851.174 5  22364375.921    22364373.264
     94504.464 5     73640.393 4  23459112.249    23459111.363
        -0.49815        -0.86914  23036162.557    23036160.322
    -19948.019 9    -15544.383 9  20883703.478    20883701.436
     39599.911 9     30856.689 9  20286970.932    20286969.540
 98 12  2  1 11  0.0000000  0  7G 7G15G26G13G19G 2G27
   -131152.074 7   -102197.057 8  21382950.152    21382947.642
    -32163.017 5    -25062.222 5  22361393.792    22361391.333
    -14672.045 5    -11432.797 4  23165130.184    23165128.675
    189399.062 5    147584.231 4  23477170.110    23477169.219
     99728.494 5     77710.002 4  23055140.140    23055137.905
    -39504.145 9    -30782.900 9  20879981.991    20879980.127
     79947.581 9     62296.443 9  20294648.803    20294647.432
 98 12  2  1 11 30.0000000  0  7G 7G15G26G13G19G 2G27
   -196066.107 7   -152779.373 8  21370597.425    21370594.954
    -47198.532 5    -36778.181 5  22358532.722    22358530.288
    -28786.010 5    -22430.640 4  23162444.578    23162442.626
    284489.620 5    221680.765 4  23495265.421    23495264.241
    199708.086 5    155616.143 4  23074165.751    23074163.375
    -58846.011 9    -45854.466 9  20876301.279    20876299.550
    120836.217 9     94157.720 9  20302429.663    20302428.279
 98 12  2  1 12  0.0000000  0  7G 7G15G26G13G19G 2G27
   -260652.009 7   -203106.003 8  21358307.040    21358304.685
    -61672.334 5    -48056.445 5  22355778.363    22355775.928
    -42427.186 4    -33060.074 4  23159848.820    23159846.469
    379687.876 4    295861.216 4  23513381.193    23513380.002
    299867.364 5    233662.299 4  23093225.421    23093223.352
    -78051.344 9    -60819.645 9  20872646.657    20872644.884
    162186.106 9    126378.415 9  20310298.121    20310296.827
 98 12  2  1 12 30.0000000  0  8G 7G15G26G13G19G31G 2G27
   -324914.349 8   -253180.504 8  21346078.376    21346076.109
    -75583.060 5    -58895.946 5  22353131.280    22353128.994
    -55589.525 4    -43316.388 4  23157343.989    23157341.550
    474983.457 4    370117.503 4  23531515.511    23531514.134
    400218.932 5    311858.293 4  23112322.116    23112319.590
        -0.25614        -0.85714  25450713.529    25450717.445
    -97119.930 9    -75678.265 9  20869018.060    20869016.175
    204008.648 9    158967.419 9  20318256.685    20318255.532
 98 12  2  1 13  0.0000000  0  7G 7G15G26G13G19G 2G27
   -388858.694 8   -303007.214 8  21333910.144    21333908.080
    -88931.423 5    -69297.243 5  22350591.124    22350588.924
    -68265.194 4    -53193.480 4  23154931.721    23154929.767
    570377.075 4    444450.182 4  23549668.416    23549667.063
    500757.598 5    390200.082 4  23131454.063    23131451.695
   -116047.872 9    -90427.293 9  20865416.153    20865414.444
    246302.450 9    191923.637 9  20326304.985    20326303.902
 98 12  2  1 13 30.0000000  0  7G 7G26G15G13G19G 2G27
   -452465.465 8   -352570.881 8  21321806.141    21321804.160
    -80412.779 4    -62659.087 4  23152620.086    23152617.924
   -101694.302 5    -79242.316 5  22348162.465    22348160.398
    665881.185 5    518868.959 4  23567842.355    23567841.016
    601497.035 5    468698.311 4  23150624.516    23150621.772
   -134806.055 9   -105044.040 9  20861846.442    20861844.860
    289104.582 9    225275.952 9  20334450.024    20334448.783
 98 12  2  1 14  0.0000000  0  8G 7G26G15G13G19G 2G27G31
   -515732.358 8   -401869.707 8  21309766.832    21309764.881
    -92017.887 4    -71701.985 4  23150411.559    23150409.351
   -113859.144 5    -88721.390 5  22345847.598    22345845.411
    761510.389 5    593385.213 4  23586039.917    23586038.685
    702466.679 5    547375.931 4  23169838.549    23169835.477
   -153380.911 9   -119517.935 9  20858311.789    20858310.291
    332434.800 9    259039.760 9  20342695.636    20342694.254
        -0.45514        -0.43714  25513927.094    25513934.350
 98 12  2  1 14 30.0000000  0  7G 7G15G26G13G19G 2G27
   -578679.285 8   -450919.210 8  21297788.293    21297786.103
   -125433.382 5    -97740.249 5  22343645.032    22343642.964
   -103079.379 4    -80321.285 4  23148306.649    23148304.373
    857261.940 4    667996.802 4  23604260.719    23604259.608
    803645.151 5    626216.283 4  23189092.256    23189089.263
   -171776.562 9   -133852.190 9  20854811.131    20854809.554
    376281.867 9    293206.309 9  20351039.444    20351038.110
 98 12  2  1 15  0.0000000  0  7G 7G15G26G13G19G 2G27
   -641278.025 8   -499697.401 8  21285876.259    21285873.975
   -136406.572 5   -106290.764 5  22341556.885    22341554.861
   -113594.327 4    -88514.714 4  23146305.479    23146303.571
    953135.721 4    742703.630 4  23622504.986    23622503.727
    905024.809 5    705213.398 4  23208384.337    23208381.287
   -189979.514 9   -148036.288 9  20851347.335    20851345.568
    420645.843 9    327775.643 9  20359481.594    20359480.410
 98 12  2  1 15 30.0000000  0  7G 7G15G26G13G19G 2G27
   -703515.319 8   -548193.946 8  21274032.823    21274030.398
   -146777.756 5   -114372.180 5  22339583.231    22339581.352
   -123565.195 4    -96284.186 4  23144408.002    23144405.920
   1049126.660 4    817501.748 4  23640771.485    23640770.149
   1006632.927 5    784388.532 4  23227719.810    23227716.886
   -207987.798 9   -162068.697 9  20847920.442    20847918.720
    465532.623 9    362752.355 9  20368023.336    20368022.197
 98 12  2  1 16  0.0000000  0  7G 7G15G26G13G19G 2G27
   -765387.170 8   -596405.732 8  21262258.885    21262256.469
   -156553.340 5   -121989.492 5  22337723.070    22337721.171
   -133003.620 4   -103638.756 4  23142611.723    23142610.124
   1145239.844 4    892395.121 4  23659061.281    23659059.691
   1108468.102 5    863740.584 4  23247098.384    23247095.367
   -225814.717 9   -175959.783 9  20844528.062    20844526.379
    510933.228 9    398129.443 9  20376662.900    20376661.653
 98 12  2  1 16 30.0000000  0  7G 7G26G15G13G19G 2G27
   -826886.935 8   -644327.583 8  21250555.673    21250553.332
   -141912.645 4   -110580.813 4  23140916.340    23140915.008
   -165727.966 5   -129138.527 5  22335977.162    22335975.179
   1241469.925 4    967379.587 4  23677373.509    23677371.725
   1210518.234 5    943260.120 4  23266518.010    23266514.780
   -243453.472 9   -189704.250 9  20841171.531    20841169.763
    556857.743 9    433914.770 9  20385401.959    20385400.688
 98 12  2  1 17  0.0000000  0  7G 7G15G26G13G19G 2G27
   -888001.021 8   -691948.902 8  21238926.015    21238923.721
   -174295.692 5   -135814.653 5  22334346.621    22334344.698
   -150298.961 4   -117115.556 4  23139320.367    23139319.163
   1337809.498 4   1042449.375 4  23695706.087    23695704.319
   1312799.884 5   1022960.052 4  23285981.549    23285978.356
   -260891.110 9   -203292.003 9  20837853.258    20837851.378
    603322.429 9    470121.017 9  20394243.715    20394242.524
 98 12  2  1 17 30.0000000  0  7G 7G15G26G13G19G 2G27
   -948742.720 8   -739280.047 7  21227367.185    21227364.993
   -182251.382 5   -142013.870 5  22332832.678    22332830.852
   -158148.994 4   -123232.423 4  23137826.620    23137825.110
   1434267.054 4   1117611.099 4  23714061.230    23714059.822
   1415316.020 5   1102842.713 4  23305489.365    23305486.288
   -278131.809 9   -216726.294 9  20834572.339    20834570.514
    650338.605 9    506757.004 9  20403190.681    20403189.412
 98 12  2  1 18  0.0000000  0  7G 7G15G26G13G19G 2G27
  -1009128.557 8   -786333.897 7  21215876.049    21215873.868
   -189595.015 5   -147736.159 5  22331435.187    22331433.269
   -165472.699 4   -128939.170 4  23136432.997    23136431.139
   1530842.179 4   1192864.440 4  23732438.626    23732437.358
   1518029.188 5   1182878.908 4  23325035.079    23325032.156
   -295181.019 9   -230011.373 9  20831327.904    20831326.200
    697892.609 9    543812.077 9  20412240.004    20412238.545
 98 12  2  1 18 30.0000000  0  7G 7G26G15G13G19G 2G27
  -1069155.192 8   -833107.845 7  21204453.340    21204451.287
   -172261.247 4   -134228.915 4  23135140.981    23135138.978
   -196315.740 5   -152973.064 5  22330156.213    22330154.515
   1627536.336 4   1268210.534 4  23750838.952    23750837.893
   1620940.280 4   1263069.326 4  23344617.943    23344615.336
   -312025.638 9   -243137.033 9  20828122.322    20828120.911
    745988.979 8    581289.767 9  20421392.651    20421390.844
 98 12  2  1 19  0.0000000  0  7G 7G15G26G13G19G 2G27
  -1128812.263 8   -879593.826 7  21193101.021    21193099.019
   -202410.036 5   -157721.849 5  22328996.473    22328994.623
   -178503.162 4   -139092.712 4  23133953.122    23133951.095
   1724362.116 4   1343659.181 4  23769264.426    23769263.401
   1724048.582 4   1343413.427 4  23364238.705    23364236.111
   -328674.442 9   -256110.110 9  20824954.168    20824952.809
    794621.075 8    619184.899 9  20430646.989    20430645.376
 98 12  2  1 19 30.0000000  0  7G 7G26G15G13G19G 2G27
  -1188105.013 8   -925795.917 7  21181818.039    21181815.939
   -184201.726 4   -143533.110 4  23132868.802    23132867.182
   -207878.062 5   -161982.628 5  22327955.989    22327953.915
   1821330.984 4   1419219.319 4  23787717.647    23787715.759
   1827348.595 4   1423906.913 4  23383895.899    23383893.375
   -345139.764 9   -268940.213 9  20821820.992    20821819.466
    843765.524 8    657479.272 8  20439998.691    20439997.338
 98 12  2  1 20  0.0000000  0  7G 7G15G26G13G19G 2G27
  -1247023.506 8   -971706.384 7  21170606.107    21170603.923
   -212724.848 5   -165759.325 5  22327033.582    22327031.659
   -189367.932 4   -147558.696 4  23131885.684    23131884.016
   1918427.958 4   1494879.278 4  23806194.691    23806192.974
   1930831.316 4   1504542.759 4  23403588.080    23403585.306
   -361420.584 9   -281626.550 9  20818722.814    20818721.175
    893412.840 8    696165.495 8  20449446.191    20449445.031
 98 12  2  1 20 30.0000000  0  7G 7G15G26G13G19G 2G27
  -1305567.991 8  -1017325.421 7  21159465.383    21159463.242
   -216958.842 5   -169058.524 5  22326228.068    22326225.791
   -194003.925 4   -151171.116 4  23131003.328    23131002.010
   2015634.811 4   1570624.848 4  23824692.344    23824690.794
   2034496.759 4   1585320.978 4  23423314.693    23423312.593
   -377526.801 9   -294176.830 9  20815657.997    20815656.313
    943568.183 9    735247.575 8  20458990.418    20458989.126
 98 12  2  1 21  0.0000000  0  7G 7G15G26G13G19G 2G27
  -1363740.065 8  -1062654.264 7  21148395.618    21148393.267
   -220580.006 5   -171880.196 5  22325538.840    22325536.720
   -198112.270 4   -154372.381 4  23130221.227    23130220.006
   2112942.218 4   1646448.778 4  23843209.308    23843207.743
   2138347.052 4   1666243.243 4  23443076.881    23443074.714
   -393465.156 9   -306596.310 9  20812625.083    20812623.423
    994232.081 9    774725.927 8  20468631.564    20468630.113
 98 12  2  1 21 30.0000000  0  7G 7G15G26G13G19G 2G27
  -1421543.722 8  -1107696.027 8  21137395.925    21137393.541
   -223584.801 5   -174221.579 5  22324966.796    22324965.143
   -201696.034 4   -157164.887 4  23129539.480    23129538.264
   2210334.858 4   1722339.126 4  23861742.078    23861740.888
   2242387.278 4   1747313.505 4  23462874.924    23462872.893
   -409225.037 9   -318876.720 9  20809625.893    20809624.234
   1045425.581 9    814616.959 8  20478373.303    20478371.836
 98 12  2  1 22  0.0000000  0  7G 7G15G26G13G19G 2G27
  -1478988.093 8  -1152457.826 8  21126464.552    21126462.146
   -225977.765 5   -176086.213 5  22324511.248    22324509.849
   -204756.731 4   -159549.804 4  23128956.956    23128955.795
   2307784.657 4   1798274.026 4  23880285.978    23880284.846
   2346606.117 4   1828522.945 4  23482707.241    23482705.218
   -424793.445 9   -331007.930 9  20806663.321    20806661.682
   1097168.620 9    854936.206 8  20488219.587    20488218.158
 98 12  2  1 22 30.0000000  0  7G 7G15G26G13G19G 2G27
  -1536074.662 8  -1196940.817 8  21115601.253    21115598.902
   -227746.460 5   -177464.395 4  22324174.519    22324173.088
   -207290.716 4   -161524.305 4  23128474.617    23128473.452
   2405313.046 4   1874270.167 4  23898845.024    23898843.386
   2451027.286 4   1909890.063 4  23502578.075    23502575.943
   -440143.675 9   -342969.133 9  20803742.204    20803740.480
   1149465.704 9    895687.175 8  20498171.465    20498170.075
 98 12  2  1 23  0.0000000  0  7G 7G15G26G13G19G 2G27
  -1592795.603 8  -1241138.903 8  21104807.483    21104805.176
   -228890.252 5   -178355.640 4  22323956.759    22323955.395
   -209297.752 4   -163088.195 4  23128092.823    23128091.692
   2502924.545 4   1950331.069 4  23917420.001    23917418.193
   2555652.173 4   1991415.925 4  23522487.725    23522485.185
   -455255.729 9   -354744.743 9  20800866.550    20800864.773
   1202304.033 9    936859.896 9  20508226.269    20508224.832
 98 12  2  1 23 30.0000000  0  7G 7G15G26G13G19G 2G27
  -1649144.188 8  -1285046.844 8  21094084.836    21094082.577
   -229408.306 5   -178759.295 4  22323858.401    22323856.805
   -210771.242 4   -164236.328 4  23127812.500    23127811.029
   2600620.419 4   2026457.718 4  23936011.549    23936009.047
   2660482.542 4   2073101.900 4  23542436.394    23542433.562
   -470112.036 9   -366321.070 9  20798039.489    20798037.684
   1255674.553 9    978447.305 9  20518382.458    20518381.000
 98 12  2  1 24  0.0000000  0  7G 7G15G26G13G19G 2G27
  -1705094.199 8  -1328644.209 8  21083437.923    21083435.766
   -229283.208 5   -178661.793 4  22323882.202    22323880.613
   -211690.122 4   -164952.296 4  23127637.793    23127636.159
   2698424.758 4   2102668.882 4  23954622.881    23954620.500
   2765531.910 4   2154958.525 4  23562426.883    23562423.872
   -484694.699 9   -377684.165 9  20795264.570    20795262.770
   1309565.945 9   1020440.589 9  20528637.580    20528636.157
 98 12  2  1 24 30.0000000  0  7G 7G15G26G13G19G 2G27
  -1760633.302 8  -1371921.391 9  21072869.134    21072867.021
   -228518.533 5   -178065.922 4  22324027.794    22324026.159
   -212055.800 4   -165237.197 5  23127568.163    23127566.308
   2796345.998 4   2178971.135 4  23973256.250    23973254.409
   2870790.859 4   2236978.448 4  23582457.352    23582454.487
   -499028.368 9   -388853.240 9  20792536.869    20792535.127
   1363962.109 9   1062827.202 9  20538988.693    20538987.359
 98 12  2  1 25  0.0000000  0  7G 7G15G26G13G19G 2G27
  -1815751.681 8  -1414870.736 9  21062380.522    21062378.254
   -227119.232 5   -176975.540 4  22324294.148    22324292.443
   -211863.152 4   -165087.042 5  23127604.971    23127602.512
   2894356.822 4   2255343.198 4  23991906.966    23991905.190
   2976238.023 4   2319145.032 4  23602523.717    23602520.286
   -513149.509 9   -399856.710 9  20789849.659    20789847.935
   1418866.838 9   1105610.107 9  20549436.837    20549435.507
 98 12  2  1 25 30.0000000  0  7G 7G15G26G13G19G 2G27
  -1870459.201 8  -1457499.930 9  21051969.945    21051967.634
   -225089.911 5   -175394.227 4  22324680.189    22324678.715
   -211117.059 4   -164505.632 5  23127747.007    23127744.571
   2992441.765 4   2331773.025 4  24010571.636    24010570.168
   3081869.290 4   2401455.076 4  23622624.702    23622621.302
   -527087.181 9   -410717.219 9  20787197.424    20787195.746
   1474283.760 9   1148792.127 9  20559982.382    20559981.000
 98 12  2  1 26  0.0000000  0  7G 7G15G26G13G19G 2G27
  -1924760.602 8  -1499812.668 9  21041636.852    21041634.444
   -222431.309 5   -173322.562 4  22325186.009    22325184.756
   -209826.522 4   -163499.989 5  23127992.470    23127989.874
   3090598.257 4   2408258.592 4  24029250.556    24029249.233
   3187672.442 4   2483899.046 4  23642758.516    23642754.808
   -540854.745 9   -421445.175 9  20784577.530    20784575.908
   1530222.308 9   1192380.602 9  20570627.198    20570625.704
 98 12  2  1 26 30.0000000  0  7G 7G15G26G13G19G 2G27
  -1978665.073 8  -1541816.106 9  21031379.159    21031376.494
   -219140.537 5   -170758.294 4  22325812.198    22325810.998
   -207990.174 4   -162069.035 5  23128341.791    23128339.649
   3188819.133 4   2484794.334 4  24047941.466    24047939.925
   3293650.956 4   2566479.665 4  23662925.521    23662921.397
   -554448.525 9   -432037.716 9  20781990.841    20781989.056
   1586697.965 9   1236387.605 9  20581374.201    20581372.614
 98 12  2  1 27  0.0000000  0  7G 7G15G26G13G19G 2G27
  -2032204.297 9  -1583534.936 9  21021191.053    21021188.306
   -215231.378 5   -167712.162 4  22326556.086    22326554.760
   -205622.220 4   -160223.843 5  23128792.429    23128790.387
   3287084.598 4   2561364.818 4  24066640.984    24066639.380
   3399798.148 4   2649191.719 4  23683124.555    23683121.154
   -567870.950 9   -442496.733 9  20779436.716    20779434.706
   1643693.065 9   1280799.366 9  20592219.900    20592218.334
 98 12  2  1 27 30.0000000  0  7G 7G15G26G13G19G 2G27
  -2085406.539 9  -1624991.183 9  21011066.919    21011064.378
   -210712.133 5   -164190.633 4  22327416.111    22327414.547
   -202736.174 4   -157974.944 5  23129341.693    23129339.786
   3385398.681 4   2637973.180 4  24085349.415    24085347.609
   3506104.766 4   2732028.003 4  23703354.012    23703350.587
   -581099.507 9   -452804.683 9  20776919.350    20776917.317
   1701194.067 9   1325605.340 9  20603162.014    20603160.294
 98 12  2  1 28  0.0000000  0  7G 7G15G26G13G19G 2G27
  -2138258.901 9  -1666174.803 9  21001009.283    21001006.798
   -205561.759 5   -160177.317 4  22328396.229    22328394.387
   -199320.938 4   -155313.687 5  23129991.313    23129989.683
   3483783.595 4   2714636.730 4  24104071.090    24104069.125
   3612585.949 4   2815000.324 4  23723617.101    23723613.657
   -594108.015 9   -462941.169 9  20774443.861    20774441.880
   1759213.094 9   1370814.969 9  20614202.841    20614200.895
 98 12  2  1 28 30.0000000  0  7G 7G15G26G13G19G 2G27
  -2190763.129 9  -1707087.150 9  20991017.995    20991015.562
   -199783.706 5   -155674.906 4  22329496.016    22329494.006
   -195374.145 4   -152238.231 4  23130742.256    23130740.603
   3582235.258 4   2791352.302 4  24122805.497    24122803.924
   3719240.651 4   2898107.847 4  23743912.728    23743909.769
   -606902.451 9   -472910.850 9  20772009.185    20772007.201
   1817749.115 9   1416427.455 9  20625341.933    20625340.043
 98 12  2  1 29  0.0000000  0  7G15G26G13G19G 7G 2G27
   -193380.563 5   -150685.416 4  22330714.619    22330712.371
   -190901.011 4   -148752.645 4  23131593.414    23131591.955
   3680747.355 4   2868114.966 4  24141551.125    24141550.510
   3826067.513 4   2981349.533 4  23764240.721    23764238.361
  -2242916.769 9  -1747726.316 9  20981093.409    20981091.082
   -619492.295 9   -482721.104 9  20769613.245    20769611.306
   1876792.681 9   1462435.436 9  20636577.382    20636575.738
 98 12  2  1 29 30.0000000  0  7G15G26G13G19G 7G 2G27
   -186356.041 5   -145211.728 4  22332051.406    22332049.105
   -185912.330 4   -144865.337 4  23132542.636    23132541.112
   3779305.888 4   2944913.809 4  24160306.931    24160305.591
   3933055.708 4   3064716.930 4  23784600.122    23784597.338
  -2294710.404 9  -1788084.961 9  20971237.169    20971234.960
   -631883.528 9   -492376.596 9  20767255.441    20767253.489
   1936333.089 9   1508830.565 9  20647907.507    20647905.928
 98 12  2  1 30  0.0000000  0  7G15G26G13G19G 7G 2G27
   -178713.213 5   -139256.249 5  22333505.618    22333503.463
   -180407.923 4   -140576.158 4  23133589.908    23133588.509
   3877893.083 4   3021734.995 4  24179067.768    24179065.965
   4040205.531 4   3148210.275 4  23804989.991    23804987.418
  -2346133.211 9  -1828154.649 9  20961451.804    20961449.658
   -644096.493 9   -501893.178 9  20764931.327    20764929.459
   1996366.780 8   1555610.064 9  20659331.625    20659329.937
 98 12  2  1 30 30.0000000  0  7G15G26G13G19G 7G 2G27
   -170445.980 5   -132814.217 4  22335078.769    22335076.476
   -174365.878 5   -135868.042 4  23134739.845    23134738.190
   3976507.549 4   3098577.417 4  24197833.536    24197831.813
   4147520.392 4   3231832.206 4  23825411.391    23825408.711
  -2397165.528 9  -1867920.057 9  20951740.531    20951738.664
   -656108.127 9   -511252.883 9  20762645.591    20762643.814
   2056898.519 8   1602777.641 9  20670850.397    20670848.680
 98 12  2  1 31  0.0000000  0  7G15G26G13G19G 7G 2G27
   -161549.538 5   -125881.902 4  22336771.520    22336769.292
   -167780.666 5   -130736.683 4  23135992.843    23135991.532
   4075149.459 4   3175441.237 4  24216604.635    24216602.525
   4255015.122 4   3315594.304 4  23845866.710    23845864.031
  -2447798.041 9  -1907373.933 9  20942105.279    20942103.672
   -667896.120 9   -520438.319 9  20760402.412    20760400.653
   2117926.546 8   1650331.941 9  20682463.550    20682461.833
 98 12  2  1 31 30.0000000  0  7G15G26G13G19G 7G 2G27
   -152033.789 5   -118467.008 4  22338582.207    22338579.804
   -160660.535 5   -125188.502 4  23137347.809    23137346.367
   4173818.289 4   3252326.014 4  24235380.844    24235378.498
   4362670.029 4   3399481.232 4  23866352.908    23866350.115
  -2498038.566 9  -1946522.364 9  20932544.637    20932543.149
   -679462.287 9   -529450.908 9  20758201.256    20758199.535
   2179453.965 8   1698275.384 9  20694171.864    20694170.038
 98 12  2  1 32  0.0000000  0  7G15G26G13G19G 7G 2G27
   -141895.507 5   -110567.024 4  22340511.456    22340509.075
   -152995.653 5   -119215.848 4  23138806.274    23138805.061
   4272527.153 4   3329241.994 4  24254164.714    24254162.758
   4470489.602 4   3483496.466 4  23886870.134    23886867.091
  -2547883.770 9  -1985362.754 9  20923059.464    20923058.062
   -690804.973 9   -538289.355 9  20756042.843    20756041.138
   2241494.031 7   1746618.294 8  20705977.574    20705975.612
 98 12  2  1 32 30.0000000  0  7G15G26G13G19G 7G 2G27
   -131131.502 5   -102179.465 4  22342559.709    22342557.421
   -144790.107 5   -112821.903 4  23140367.696    23140366.468
   4371285.098 4   3406196.207 4  24272957.748    24272955.946
   4578472.063 4   3567638.627 4  23907418.560    23907415.873
  -2597325.935 9  -2023889.090 9  20913651.083    20913649.577
   -701912.750 9   -546944.754 9  20753929.294    20753927.468
   2304048.267 7   1795361.853 8  20717881.271    20717879.523
 98 12  2  1 33  0.0000000  0  7G15G26G13G19G 7G 2G27
   -119746.668 5    -93308.150 4  22344726.081    22344723.978
   -136069.137 5   -106026.326 4  23142027.166    23142026.233
   4470087.793 4   3483185.299 4  24291759.021    24291758.252
   4686601.557 4   3651895.345 4  23927994.995    23927991.799
  -2646378.746 9  -2062112.033 9  20904316.597    20904314.909
   -712812.038 9   -555437.692 9  20751855.204    20751853.253
   2367110.848 8   1844501.523 8  20729881.667    20729880.122
 98 12  2  1 33 30.0000000  0  7G15G26G13G19G 7G 2G27
   -107741.617 5    -83953.549 4  22347010.717    22347008.668
   -126844.336 5    -98838.148 4  23143782.578    23143781.464
   4568923.177 4   3560199.858 4  24310566.734    24310566.065
   4794861.402 4   3736253.632 4  23948596.265    23948592.504
  -2695048.694 9  -2100036.643 9  20895055.035    20895053.257
   -723517.464 9   -563779.567 9  20749818.012    20749815.973
   2430666.241 8   1894025.195 8  20741975.970    20741974.474
 98 12  2  1 34  0.0000000  0  7G15G26G13G19G 7G 2G27
    -95120.897 5    -74119.208 4  22349412.499    22349410.340
   -117122.603 5    -91262.757 4  23145632.399    23145631.546
   4667764.650 4   3637219.180 4  24329375.749    24329375.066
   4903244.168 4   3820707.701 4  23969220.970    23969217.878
  -2743337.238 9  -2137664.055 9  20885865.748    20885864.045
   -734029.364 9   -571970.644 9  20747817.713    20747815.603
   2494685.952 8   1943910.672 8  20754158.539    20754156.878
 98 12  2  1 34 30.0000000  0  7G15G26G13G19G 7G 2G27
    -81861.238 5    -63786.991 4  22351935.741    22351933.258
   -106893.833 5    -83292.264 4  23147578.904    23147577.933
   4766626.732 4   3714254.539 4  24348188.973    24348187.798
   5011770.916 4   3905273.966 4  23989873.139    23989869.185
  -2791233.836 9  -2174986.052 9  20876751.384    20876749.649
   -744319.353 9   -579988.803 9  20745859.571    20745857.524
   2559188.674 8   1994172.522 7  20766432.885    20766431.431
 98 12  2  1 35  0.0000000  0  7G15G26G13G19G 7G 2G27
    -67974.570 5    -52966.197 4  22354578.200    22354575.561
    -96166.414 5    -74933.223 4  23149620.324    23149619.180
   4865493.602 4   3791293.645 4  24367003.284    24367000.973
   5120432.568 4   3989945.367 4  24010550.687    24010546.954
  -2838759.511 9  -2212019.017 8  20867707.476    20867705.972
   -754397.940 9   -587842.231 9  20743941.682    20743939.691
   2624160.317 8   2044799.765 7  20778796.392    20778795.231
 98 12  2  1 35 30.0000000  0  7G15G26G13G19G 7G 2G27
    -53449.940 5    -41648.292 4  22357342.021    22357339.638
    -84916.268 4    -66166.864 4  23151761.259    23151759.983
   4964370.463 4   3868340.537 4  24385818.824    24385815.739
   5229246.839 4   4074735.681 4  24031257.154    24031253.249
  -2885903.879 9  -2248754.863 8  20858736.057    20858734.842
   -764229.436 9   -595503.124 9  20742070.808    20742068.875
   2689617.659 8   2095805.481 7  20791252.457    20791251.448
 98 12  2  1 36  0.0000000  0  8G15G26G13G19G 4G 7G 2G27
    -38295.358 5    -29839.510 4  22360225.582    22360223.720
    -73143.832 4    -56993.521 4  23154001.305    23154000.097
   5063254.794 4   3945393.250 4  24404636.234    24404632.347
   5338209.749 4   4159641.821 4  24051992.090    24051989.258
        -0.86814        -0.22614  25211728.006    25211725.989
  -2932675.804 9  -2285200.493 8  20849835.672    20849834.348
   -773817.156 9   -602974.058 9  20740246.280    20740244.359
   2755569.763 8   2147196.720 7  20803802.854    20803801.607
 98 12  2  1 36 30.0000000  0  7G15G26G13G19G 7G 2G27
    -22515.435 5    -17543.446 4  22363228.289    22363226.790
    -60854.322 4    -47417.265 4  23156339.686    23156338.578
   5162149.149 4   4022453.777 4  24423455.293    24423451.007
   5447319.017 4   4244662.005 4  24072754.680    24072751.929
  -2979081.587 9  -2321360.815 8  20841004.872    20841003.549
   -783173.422 9   -610264.640 9  20738465.821    20738463.868
   2822020.152 8   2198976.226 7  20816448.019    20816446.568
 98 12  2  1 37  0.0000000  0  7G15G26G13G19G 7G 2G27
     -6106.456 5     -4757.206 4  22366350.903    22366349.266
    -48029.427 5    -37423.823 4  23158780.007    23158779.345
   5261048.494 4   4099518.194 4  24442274.830    24442271.190
   5556568.540 4   4329791.479 4  24093544.190    24093541.474
  -3025105.093 9  -2357223.264 8  20832246.884    20832245.490
   -792296.437 9   -617373.469 9  20736729.859    20736727.830
   2888968.320 8   2251143.611 7  20829187.897    20829186.519
 98 12  2  1 37 30.0000000  0  8G15G26G13G19G 7G 2G27G 4
     10933.569 5      8520.759 4  22369593.507    22369591.898
    -34671.309 5    -27014.879 4  23161321.842    23161321.084
   5359962.603 4   4176594.099 4  24461097.508    24461093.615
   5665959.979 4   4415031.539 4  24114360.553    24114357.941
  -3070737.423 9  -2392780.898 8  20823563.247    20823561.658
   -801192.952 9   -624305.802 9  20735036.814    20735034.913
   2956417.714 8   2303701.570 7  20842022.920    20842021.869
        -0.98914        -0.10714  25148369.256    25148365.586
 98 12  2  1 38  0.0000000  0  7G15G26G13G19G 7G 2G27
     28598.315 5     22285.518 4  22372955.159    22372953.376
    -20793.699 5    -16201.136 4  23163962.521    23163961.803
   5458888.398 4   4253679.130 4  24479922.682    24479919.036
   5775487.508 4   4500377.642 4  24135202.877    24135199.702
  -3115976.507 9  -2428032.105 8  20814954.550    20814952.922
   -809890.093 9   -631082.777 9  20733381.716    20733379.946
   3024361.413 8   2356644.705 8  20854952.205    20854951.075
 98 12  2  1 38 30.0000000  0  8G15G26G13G19G 7G 2G27G 4
     46887.022 5     36536.477 5  22376435.393    22376433.512
     -6402.764 5     -4987.402 4  23166700.933    23166700.193
   5557824.260 4   4330771.994 4  24498749.492    24498746.283
   5885140.618 4   4585821.603 4  24156069.354    24156066.566
  -3160818.708 9  -2462974.052 8  20806421.351    20806419.636
   -818392.891 9   -637708.323 9  20731763.656    20731761.864
   3092796.177 8   2409970.494 8  20867975.024    20867973.800
        -0.83314        -0.38514  25106029.585    25106025.434
 98 12  2  1 39  0.0000000  0  8G15G26G13G19G 4G 7G 2G27
     65794.646 5     51269.705 5  22380033.426    22380031.768
      8498.727 4      6624.169 4  23169536.991    23169535.813
   5656767.108 4   4407870.295 4  24517577.740    24517575.373
   5994921.167 4   4671364.870 4  24176960.167    24176957.021
   -111411.796 4    -86814.008 4  25084828.231    25084825.480
  -3205272.595 9  -2497613.418 8  20797961.920    20797960.363
   -826701.540 9   -644182.586 9  20730182.495    20730180.768
   3161723.898 8   2463680.402 8  20881091.607    20881090.215
 98 12  2  1 39 30.0000000  0  8G15G26G13G19G 7G 2G27G 4
     85321.274 5     66485.272 5  22383749.213    22383747.519
     23902.248 4     18626.930 4  23172468.138    23172466.971
   5755711.680 4   4484969.940 4  24536405.913    24536404.285
   6104833.388 4   4757010.738 4  24197875.625    24197872.087
  -3249340.971 9  -2531952.383 8  20789575.891    20789574.546
   -834811.924 9   -650502.353 9  20728639.175    20728637.344
   3231146.408 8   2517775.859 8  20894302.341    20894300.915
   -222906.616 4   -173692.993 4  25063610.850    25063607.937
 98 12  2  1 40  0.0000000  0  8G15G26G13G19G 4G 7G 2G27
    105467.173 5     82183.387 5  22387582.770    22387581.205
     39815.236 4     31026.673 4  23175496.417    23175495.011
   5854643.117 4   4562059.345 4  24555232.007    24555230.695
   6214863.997 4   4842748.843 4  24218813.592    24218810.700
   -334472.071 4   -260627.068 4  25042380.913    25042377.347
  -3293028.596 9  -2565994.660 9  20781262.430    20781261.100
   -842709.705 9   -656656.454 9  20727136.328    20727134.506
   3301056.282 8   2572251.080 8  20907605.736    20907604.288
 98 12  2  1 40 30.0000000  0  8G15G26G13G 7G 2G27G19G 4
    126231.713 5     98363.560 5  22391534.028    22391532.330
     56243.827 5     43828.186 4  23178622.740    23178621.865
   5953556.092 4   4639134.368 4  24574054.364    24574053.518
  -3336336.306 9  -2599740.898 9  20773021.302    20773019.846
   -850367.998 9   -662623.942 9  20725678.961    20725677.188
   3371438.596 8   2627094.436 8  20920999.074    20920997.545
   6325011.121 4   4928577.756 4  24239773.996    24239770.880
   -446103.304 4   -347612.396 4  25021138.370    25021134.892
 98 12  2  1 41  0.0000000  0  8G15G26G13G19G 4G 7G 2G27
    147620.098 5    115029.845 5  22395604.065    22395602.643
     73189.327 5     57032.486 4  23181847.386    23181846.416
   6052446.472 4   4716191.779 4  24592872.457    24592871.614
   6435282.939 4   5014503.829 4  24260757.608    24260754.920
   -557806.609 4   -434653.898 4  24999881.543    24999877.922
  -3379260.195 9  -2633188.055 9  20764853.249    20764851.783
   -857765.943 9   -668388.563 9  20724271.098    20724269.439
   3442298.221 7   2682309.724 8  20934483.263    20934481.568
 98 12  2  1 41 30.0000000  0  8G15G26G13G 7G 2G27G19G 4
    169627.025 5    132178.110 5  22399791.846    22399790.328
     90637.132 5     70628.192 4  23185167.576    23185166.444
   6151303.789 4   4793223.427 4  24611684.285    24611683.526
  -3421803.677 9  -2666338.792 9  20756757.480    20756755.917
   -864909.144 9   -673954.683 9  20722911.792    20722910.004
   3513623.599 7   2737887.936 8  20948056.237    20948054.370
   6545652.443 4   5100506.036 4  24281759.995    24281757.542
   -669590.177 4   -521757.964 4  24978609.594    24978606.275
 98 12  2  1 42  0.0000000  0  8G15G26G13G19G 7G 2G27G 4
    192252.782 4    149808.581 5  22404097.384    22404095.819
    108591.491 5     84618.620 4  23188584.304    23188583.102
   6250134.948 4   4870234.690 4  24630491.338    24630490.225
   6656127.640 4   5186590.603 4  24302782.594    24302780.351
  -3463961.583 9  -2699189.080 9  20748735.193    20748733.468
   -871803.180 9   -679326.648 9  20721599.870    20721597.977
   3585414.641 7   2793829.003 8  20961717.654    20961715.630
   -781466.503 4   -608934.278 4  24957319.771    24957316.328
 98 12  2  1 42 30.0000000  0  8G15G26G13G 7G 2G27G19G 4
    215497.379 4    167921.260 5  22408520.722    22408518.900
    127038.503 5     98992.927 4  23192094.783    23192093.407
   6348936.872 4   4947223.174 4  24649292.933    24649291.805
  -3505735.551 9  -2731740.196 9  20740785.885    20740784.062
   -878460.893 9   -684514.464 9  20720333.047    20720330.955
   3657679.941 7   2850139.619 8  20975469.133    20975467.222
   6766720.469 4   5272766.823 4  24323828.562    24323825.679
   -893444.935 4   -696190.137 4  24936010.950    24936007.758
 98 12  2  1 43  0.0000000  0  8G27G15G26G13G19G 4G 7G 2
   3730441.718 7   2906837.111 8  20989315.138    20989313.381
    239374.429 4    186526.757 5  22413064.333    22413062.766
    145990.187 5    113760.487 4  23195701.066    23195699.678
   6447724.409 4   5024200.437 4  24668091.543    24668090.301
   6877434.652 4   5359037.619 4  24344896.316    24344893.564
  -1005510.760 4   -783514.112 4  24914685.380    24914682.499
  -3547116.514 9  -2763985.076 9  20732911.352    20732909.545
   -884907.698 9   -689537.938 9  20719106.297    20719104.220
 98 12  2  1 43 30.0000000  0  8G27G15G26G13G 7G 2G19G 4
   3803668.439 7   2963896.897 8  21003249.695    21003248.003
    263866.494 4    205611.490 5  22417725.139    22417723.411
    165440.460 5    128916.558 4  23199402.301    23199400.945
   6546479.333 4   5101152.313 4  24686884.006    24686882.856
  -3588112.374 9  -2795929.877 9  20725109.977    20725108.270
   -891175.733 9   -694422.108 9  20717913.520    20717911.542
   6988253.433 4   5445389.904 4  24365984.475    24365981.976
  -1117669.302 4   -870910.312 4  24893341.953    24893338.804
 98 12  2  1 44  0.0000000  0  8G27G15G26G13G19G 4G 7G 2
   3877358.096 7   3021317.403 8  21017272.370    21017270.508
    288976.136 4    225177.451 5  22422503.279    22422501.547
    185398.962 5    144468.649 4  23203200.137    23203199.041
   6645194.461 4   5178073.172 4  24705668.794    24705667.681
   7099185.330 4   5531830.342 4  24387094.177    24387092.177
  -1229923.476 4   -958381.059 4  24871980.630    24871977.881
  -3628718.293 9  -2827570.828 9  20717382.817    20717381.151
   -897261.548 9   -699164.288 9  20716755.304    20716753.419
 98 12  2  1 44 30.0000000  0  8G27G15G26G13G19G 7G 2G 4
   3951504.611 7   3079093.903 8  21031381.939    21031380.147
    314711.555 4    245231.032 5  22427400.383    22427398.120
    205875.972 5    160424.778 4  23207096.491    23207095.843
   6743871.000 4   5254963.970 4  24724446.733    24724444.551
   7210224.410 4   5618354.295 4  24408224.311    24408222.272
  -3668921.312 9  -2858897.830 9  20709732.405    20709730.871
   -903150.692 9   -703753.222 9  20715634.615    20715632.914
  -1342252.951 4  -1045910.450 4  24850604.996    24850601.249
 98 12  2  1 45  0.0000000  0  8G27G15G26G13G 7G 2G19G 4
   4026096.172 7   3137217.185 8  21045576.503    21045574.546
    341072.160 4    265771.769 5  22432416.874    22432414.629
    226881.790 5    176792.963 4  23211093.829    23211092.998
   6842507.823 4   5331823.820 4  24743216.990    24743213.873
  -3708714.681 9  -2889905.629 9  20702160.021    20702158.342
   -908834.265 9   -708181.976 9  20714552.932    20714551.304
   7321364.114 4   5704956.647 4  24429373.446    24429371.358
  -1454630.998 4  -1133477.679 4  24829220.198    24829216.352
 98 12  2  1 45 30.0000000  0  8G27G15G26G13G 7G 2G19G 4
   4101120.639 7   3195677.784 7  21059853.158    21059851.238
    368044.342 4    286789.060 5  22437548.842    22437547.106
    248395.197 5    193556.671 4  23215187.604    23215186.994
   6941080.077 4   5408633.359 4  24761975.079    24761971.726
  -3748111.321 9  -2920604.289 9  20694663.092    20694661.431
   -914284.819 9   -712429.151 9  20713515.717    20713514.074
   7432596.782 4   5791631.444 4  24450540.602    24450538.228
  -1567057.096 4  -1221082.318 4  24807826.196    24807822.785
 98 12  2  1 46  0.0000000  0  8G27G15G26G13G19G 7G 2G 4
   4176584.277 7   3254480.598 7  21074213.254    21074211.424
    395622.321 4    308278.402 5  22442797.486    22442795.098
    270390.995 5    210696.270 4  23219373.466    23219372.582
   7039579.518 4   5485386.157 4  24780718.335    24780714.799
   7543928.032 4   5878383.061 4  24471726.489    24471724.178
  -3787130.219 9  -2951008.605 9  20687238.012    20687236.195
   -919494.479 9   -716488.617 9  20712524.387    20712522.658
  -1679528.197 4  -1308722.041 4  24786423.638    24786419.978
 98 12  2  1 46 30.0000000  0  8G27G15G26G 7G 2G13G19G 4
   4252493.709 7   3313630.796 7  21088658.234    21088656.499
    423802.604 4    330237.070 5  22448159.720    22448157.992
    292857.974 5    228203.012 4  23223648.583    23223647.726
  -3825777.278 9  -2981123.178 9  20679883.618    20679881.582
   -924451.363 9   -720351.115 9  20711581.167    20711579.496
   7138007.142 4   5562082.993 4  24799448.857    24799444.935
   7655361.901 4   5965214.616 4  24492931.692    24492929.122
  -1792029.367 4  -1396385.190 4  24765015.222    24765011.605
 98 12  2  1 47  0.0000000  0  8G27G15G26G13G 7G 2G19G 4
   4328870.740 7   3373145.357 7  21103192.476    21103190.689
    452586.012 4    352665.711 5  22453637.154    22453635.469
    315791.393 4    246073.215 4  23228012.721    23228011.712
   7236365.658 4   5638725.983 4  24818165.678    24818162.569
  -3864063.912 9  -3010956.899 9  20672597.775    20672595.768
   -929153.327 9   -724014.976 9  20710686.395    20710684.738
   7766898.889 4   6052126.515 4  24514156.201    24514154.174
  -1904566.864 4  -1484076.643 4  24743599.920    24743596.001
 98 12  2  1 47 30.0000000  0  8G27G15G26G 7G 2G13G19G 4
   4405724.725 7   3433031.573 7  21117817.382    21117815.558
    481979.585 4    375569.806 5  22459230.392    22459228.533
    339191.071 4    264306.736 4  23232465.574    23232464.498
  -3901981.089 9  -3040502.734 9  20665382.516    20665380.582
   -933590.910 9   -727472.824 9  20709841.911    20709840.157
   7334663.206 4   5715321.465 4  24836870.506    24836868.572
   7878544.479 4   6139123.044 4  24535401.641    24535400.064
  -2017159.180 4  -1571810.833 4  24722173.926    24722170.375
 98 12  2  1 48  0.0000000  0  8G27G15G26G13G 7G 2G19G 4
   4483042.004 7   3493278.795 7  21132530.467    21132528.632
    511983.632 4    398949.595 5  22464940.316    22464937.796
    363064.404 4    282909.336 4  23237008.793    23237007.547
   7432916.556 4   5791882.506 4  24855567.054    24855565.518
  -3939525.138 9  -3069757.821 9  20658238.278    20658236.360
   -937781.067 9   -730737.870 9  20709044.484    20709042.700
   7990297.432 4   6226203.238 4  24556667.378    24556665.695
  -2129821.443 4  -1659599.518 4  24700734.790    24700732.369
 98 12  2  1 48 30.0000000  0  8G27G15G26G 7G 2G13G19G 4
   4560827.927 7   3553891.190 7  21147332.617    21147330.882
    542612.046 4    422815.900 5  22470767.620    22470766.278
    387447.164 4    301908.897 4  23241648.551    23241647.297
  -3976674.746 9  -3098705.550 9  20651169.018    20651167.199
   -941721.939 9   -733808.673 9  20708294.566    20708292.827
   7531149.129 4   5868427.363 4  24874260.491    24874258.793
   8102145.388 4   6313357.470 4  24577951.257    24577950.367
  -2242549.333 4  -1747439.354 4  24679283.663    24679280.069
 98 12  2  1 49  0.0000000  0  8G27G15G26G 7G 2G13G19G 4
   4639073.425 7   3614861.681 7  21162222.102    21162220.376
    573866.737 4    447170.219 5  22476716.188    22476713.812
    412338.524 5    321304.769 4  23246385.341    23246384.148
  -4013423.643 9  -3127341.040 9  20644175.823    20644174.180
   -945430.111 9   -736698.153 9  20707589.063    20707587.269
   7629358.723 4   5944954.314 4  24892949.456    24892947.796
   8214077.981 4   6400577.650 4  24599251.070    24599250.536
  -2355343.735 4  -1835331.021 4  24657818.517    24657817.308
 98 12  2  1 49 30.0000000  0  9G27G15G26G 7G 2G13G19G 4G 9
   4717762.732 7   3676177.994 6  21177196.152    21177194.512
    605732.081 4    472000.367 5  22482779.153    22482777.785
    437714.901 5    341078.577 4  23251214.239    23251213.208
  -4049773.942 9  -3155665.933 9  20637258.665    20637256.942
   -948914.952 9   -739413.608 9  20706925.892    20706924.011
   7727521.712 4   6021444.940 4  24911629.670    24911627.821
   8326090.894 4   6487860.413 4  24620566.463    24620565.674
  -2468208.140 4  -1923277.224 4  24636342.560    24636339.653
        -0.53914        -0.65614  25028998.203    25028993.891
 98 12  2  1 50  0.0000000  0  8G27G15G26G 7G 2G13G19G 4
   4796896.931 7   3737840.991 6  21192254.884    21192253.393
    638203.274 4    497302.606 5  22488958.469    22488957.174
    463575.898 5    361230.008 4  23256135.393    23256134.511
  -4085731.162 9  -3183684.531 9  20630416.246    20630414.511
   -952182.600 9   -741959.822 9  20706304.070    20706302.056
   7825626.301 4   6097890.064 4  24930298.530    24930296.374
   8438182.374 4   6575204.405 4  24641896.628    24641896.100
  -2581128.718 4  -2011267.185 4  24614854.442    24614851.364
 98 12  2  1 50 30.0000000  0  8G27G15G26G 7G 2G13G19G 4
   4876500.852 7   3799870.012 6  21207402.956    21207401.340
    671291.686 4    523085.798 5  22495255.039    22495253.700
    489928.035 5    381764.143 4  23261150.057    23261149.071
  -4121281.888 9  -3211386.383 9  20623651.007    20623649.388
   -955218.133 9   -744325.165 9  20705726.357    20705724.434
   7923657.716 4   6174278.172 4  24948953.071    24948951.429
   8550359.762 4   6662615.348 4  24663243.214    24663242.444
  -2694073.215 4  -2099275.831 4  24593362.202    24593358.751
 98 12  2  1 51  0.0000000  0  9G27G15G26G 7G 2G13G19G 4G 9
   4956561.269 7   3862254.737 6  21222637.938    21222636.306
    704975.494 4    549332.928 5  22501665.010    22501663.575
    516742.230 5    402658.322 4  23266252.363    23266251.488
  -4156444.170 9  -3238785.552 9  20616959.770    20616958.171
   -958026.635 9   -746513.600 9  20705191.942    20705190.129
   8021586.567 4   6250586.355 4  24967588.253    24967586.252
   8662619.854 4   6750090.714 4  24684605.788    24684604.376
  -2807054.072 4  -2187312.782 4  24571862.211    24571858.801
        -0.27914        -0.74614  24969770.542    24969768.137
 98 12  2  1 51 30.0000000  0  8G27G15G26G13G 7G 2G19G 4
   5037077.779 7   3924994.859 6  21237959.768    21237958.117
    739265.806 4    576052.661 5  22508190.313    22508188.662
    544041.958 5    423930.841 4  23271447.433    23271446.395
   8119435.171 4   6326832.027 4  24986207.877    24986205.992
  -4191204.461 9  -3265871.477 9  20610345.250    20610343.586
   -960580.307 9   -748503.465 9  20704705.907    20704704.126
   8774977.031 4   6837641.733 4  24705986.651    24705984.990
  -2920050.674 4  -2275362.010 4  24550360.070    24550357.027
 98 12  2  1 52  0.0000000  0  8G26G27G15G 7G 2G13G19G 4
    571830.957 5    445584.610 4  23276735.741    23276734.587
   5118020.773 7   3988067.309 6  21253362.839    21253361.225
    774160.058 4    603242.994 5  22514830.479    22514828.749
  -4225583.969 9  -3292660.686 9  20603802.937    20603801.357
   -962874.421 9   -750291.076 9  20704269.299    20704267.612
   8217211.466 4   6403021.345 4  25004814.293    25004812.013
   8887410.249 4   6925252.004 4  24727382.143    24727380.421
  -3033056.515 4  -2363418.474 4  24528855.054    24528853.261
 98 12  2  1 52 30.0000000  0  9G27G15G26G 7G 2G13G19G 4G 9
   5199396.349 7   4051476.839 6  21268848.136    21268846.545
    809667.604 4    630911.223 5  22521587.360    22521585.761
    600114.841 5    467624.001 4  23282118.102    23282116.767
  -4259580.119 9  -3319151.176 9  20597333.666    20597332.123
   -964893.551 9   -751864.411 9  20703885.070    20703883.375
   8314932.105 4   6479167.296 4  25023409.335    25023407.705
   8999917.040 4   7012919.610 4  24748791.951    24748789.532
  -3146059.617 4  -2451472.752 4  24507352.084    24507348.558
        -0.02914        -0.16614  24910719.235    24910716.936
 98 12  2  1 53  0.0000000  0  8G27G15G26G 7G 2G13G19G 4
   5281181.050 8   4115205.170 6  21284411.315    21284409.901
    845773.191 4    659045.452 5  22528457.883    22528456.360
    628877.320 5    490036.326 4  23287591.430    23287590.038
  -4293207.868 9  -3345354.599 9  20590934.626    20590932.985
   -966650.028 9   -753233.084 9  20703551.016    20703549.260
   8412597.428 4   6555270.155 4  25041994.350    25041992.801
   9112482.281 4   7100632.756 4  24770212.450    24770209.448
  -3259070.759 4  -2539533.360 4  24485845.926    24485844.773
 98 12  2  1 53 30.0000000  0  9G27G15G26G 7G 2G13G19G 4G 9
   5363362.784 8   4179242.875 6  21300049.931    21300048.533
    882476.417 4    687645.379 5  22535442.074    22535440.640
    658107.764 5    512813.304 4  23293153.644    23293152.438
  -4326466.548 9  -3371270.437 9  20584605.754    20584604.118
   -968156.845 9   -754407.218 9  20703264.381    20703262.541
   8510194.836 4   6631320.100 4  25060566.540    25060565.067
   9225096.720 4   7188384.251 4  24791642.256    24791638.948
  -3372078.177 4  -2627591.014 4  24464341.477    24464340.079
         0.40514        -0.07314  24871433.419    24871431.949
 98 12  2  1 54  0.0000000  0  8G27G15G26G 7G 2G13G19G 4
   5445958.296 8   4243602.999 6  21315767.390    21315766.100
    919774.132 4    716708.540 5  22542539.434    22542538.163
    687806.729 5    535955.368 4  23298805.176    23298804.011
  -4359364.866 9  -3396905.473 9  20578345.402    20578343.751
   -969438.004 9   -755405.511 9  20703020.673    20703018.784
   8607704.211 4   6707301.443 4  25079122.548    25079120.827
   9337757.886 4   7276172.126 4  24813081.104    24813077.918
  -3485097.243 4  -2715657.800 4  24442834.268    24442832.126
 98 12  2  1 54 30.0000000  0  9G27G15G26G 7G 2G13G19G 4G 9
   5528986.334 8   4308300.153 6  21331567.094    21331565.772
    957666.702 4    746235.228 5  22549749.935    22549748.564
    717979.085 5    559466.304 4  23304546.634    23304545.571
  -4391870.660 9  -3422234.647 9  20572159.604    20572158.072
   -970512.906 9   -756243.086 9  20702816.022    20702814.213
   8705111.275 4   6783203.069 4  25097658.653    25097656.562
   9450478.526 4   7364006.369 4  24834531.632    24834527.767
  -3598130.097 4  -2803735.350 4  24421324.916    24421323.404
         0.00814         0.17214  24832228.693    24832226.731
 98 12  2  1 55  0.0000000  0  8G27G15G26G 7G 2G13G19G 4
   5612430.779 8   4373321.779 6  21347445.862    21347444.728
    996146.774 4    776219.707 5  22557072.488    22557071.016
    748608.046 5    583333.038 4  23310375.223    23310374.197
  -4423977.776 9  -3447253.160 9  20566049.761    20566048.195
   -971400.252 9   -756934.516 9  20702647.078    20702645.355
   8802384.636 4   6859000.493 4  25116169.150    25116167.098
   9563255.631 4   7451884.596 4  24855992.534    24855988.469
  -3711184.977 4  -2891830.007 4  24399811.476    24399810.276
 98 12  2  1 55 30.0000000  0  9G27G15G26G 7G 2G13G19G 4G 9
   5696296.172 7   4438671.413 6  21363404.997    21363403.713
   1035219.743 4    806666.184 5  22564507.772    22564506.353
    779700.479 5    607560.921 4  23316292.042    23316290.735
  -4455685.790 9  -3471960.682 9  20560015.910    20560014.468
   -972088.426 9   -757470.745 9  20702516.125    20702514.267
   8899521.043 4   6934691.206 4  25134653.392    25134651.336
   9676097.013 4   7539812.906 4  24877465.742    24877461.807
  -3824269.203 4  -2979947.545 4  24378292.642    24378290.774
        -0.38414        -0.07314  24793119.461    24793118.435
 98 12  2  1 56  0.0000000  0  8G27G15G26G 7G 2G13G19G 4
   5780592.480 7   4504356.826 6  21379446.196    21379444.705
   1074890.136 5    837578.191 5  22572057.071    22572055.288
    811267.861 4    632158.887 5  23322299.023    23322297.853
  -4486997.695 9  -3496359.550 9  20554057.420    20554056.148
   -972551.067 9   -757831.234 9  20702428.097    20702426.255
   8996534.431 4   7010286.060 4  25153114.481    25153112.607
   9789009.608 4   7627796.726 4  24898952.481    24898948.465
  -3937374.336 4  -3068081.335 4  24356769.212    24356768.142
 98 12  2  1 56 30.0000000  0  9G27G15G26G 7G 2G13G19G 4G 9
   5865309.209 7   4570369.849 6  21395567.200    21395565.607
   1115155.313 5    868953.659 5  22579719.365    22579717.582
    843285.860 4    657107.986 5  23328392.002    23328390.547
  -4517911.546 9  -3520448.246 9  20548174.674    20548173.386
   -972768.672 9   -758000.790 9  20702386.699    20702384.875
   9093423.709 4   7085784.212 4  25171551.604    25171549.679
   9901987.492 4   7715831.412 4  24920452.015    24920447.314
  -4050484.245 4  -3156218.857 4  24335245.325    24335243.720
        -0.45514        -0.51614  24754117.356    24754116.946
 98 12  2  1 57  0.0000000  0  9G27G26G15G 7G 2G13G19G 4G 9
   5950422.794 7   4636692.118 6  21411763.698    21411762.260
    875736.412 4    682394.140 5  23334567.240    23334565.897
   1155995.950 5    900777.540 5  22587490.909    22587489.280
  -4548473.202 9  -3544262.503 9  20542358.979    20542357.644
   -972742.080 9   -757980.059 9  20702391.692    20702389.851
   9190190.800 4   7161187.151 4  25189965.239    25189963.612
  10015007.799 4   7803899.145 4  24941959.130    24941954.697
  -4163618.936 4  -3244375.672 4  24313716.620    24313715.196
   -102290.543 4    -79707.041 4  24734651.966    24734651.040
 98 12  2  1 57 30.0000000  0  9G27G15G26G 7G 2G13G19G 4G 9
   6035979.214 7   4703359.446 6  21428044.505    21428043.134
   1197446.596 5    933076.753 5  22595378.811    22595377.153
    908669.035 4    708055.929 5  23340834.384    23340832.554
  -4578653.829 9  -3567779.854 9  20536615.694    20536614.480
   -972417.036 9   -757726.768 9  20702453.532    20702451.670
   9286899.155 4   7236544.340 4  25208368.222    25208366.600
  10128110.753 4   7892031.299 4  24963481.885    24963477.556
  -4276732.470 4  -3332515.966 4  24292191.624    24292190.867
   -204442.071 4   -159305.603 4  24715213.401    24715212.407
 98 12  2  1 58  0.0000000  0  9G27G15G26G 7G 2G13G19G 4G 9
   6121973.913 7   4770368.282 6  21444408.892    21444407.440
   1239491.593 5    965839.100 5  22603379.969    22603377.652
    942067.063 4    734080.371 5  23347189.877    23347187.880
  -4608458.426 9  -3591004.198 9  20530944.067    20530942.839
   -971814.970 9   -757257.619 9  20702568.084    20702566.223
   9383536.635 4   7311846.272 4  25226757.773    25226755.841
  10241272.099 4   7980208.942 4  24985015.670    24985011.653
  -4389823.373 4  -3420638.646 4  24270670.534    24270670.057
   -306474.532 4   -238811.392 4  24695797.805    24695796.635
 98 12  2  1 58 30.0000000  0  9G27G 7G 2G26G15G13G19G 4G 9
   6208400.519 7   4837713.669 6  21460855.399    21460853.936
  -4637886.871 9  -3613935.435 9  20525343.940    20525342.540
   -970959.916 9   -756591.337 9  20702730.783    20702729.020
    975910.491 4    760451.886 5  23353630.137    23353627.972
   1282117.953 5    999054.454 5  22611491.602    22611489.358
   9480088.102 4   7387081.180 4  25245131.295    25245129.695
  10354476.597 4   8068420.219 4  25006557.867    25006553.658
  -4502914.316 4  -3508761.324 4  24249150.316    24249148.458
   -408396.177 4   -318230.832 4  24676402.670    24676401.122
 98 12  2  1 59  0.0000000  0  9G27G15G26G 7G 2G13G19G 4G 9
   6295260.659 7   4905396.880 6  21477384.403    21477382.901
   1325322.104 5   1032720.039 5  22619712.856    22619710.943
   1010206.055 4    787175.709 5  23360156.484    23360154.284
  -4666942.945 9  -3636576.513 9  20519814.894    20519813.351
   -969847.351 9   -755724.392 9  20702942.462    20702940.854
   9576548.791 4   7462245.367 4  25263487.232    25263485.387
  10467728.471 4   8156668.409 4  25028108.957    25028105.067
  -4616010.202 4  -3596887.898 4  24227629.389    24227628.144
   -510201.446 4   -397559.548 4  24657029.773    24657028.380
 98 12  2  1 59 30.0000000  0  9G27G26G 7G 2G15G13G19G 4G 9
   6382550.114 7   4973414.615 6  21493995.122    21493993.576
   1044950.081 4    814248.978 5  23366767.944    23366765.681
  -4695612.323 9  -3658916.271 9  20514359.311    20514357.749
   -968469.102 9   -754650.417 9  20703204.678    20703203.043
   1369107.419 5   1066838.482 4  22628044.945    22628043.050
   9672897.932 4   7537322.614 4  25281821.944    25281820.441
  10581024.037 4   8244950.631 4  25049668.776    25049664.655
  -4729100.161 4  -3685009.808 4  24206108.579    24206106.030
   -611874.311 4   -476785.065 4  24637681.232    24637680.151
 98 12  2  2  0  0.0000000  0  9G27G26G 7G 2G15G13G19G 4G 9
   6470263.320 7   5041762.544 6  21510686.337    21510684.890
   1080142.882 5    841671.948 5  23373464.895    23373462.929
  -4723884.376 9  -3680946.426 9  20508979.398    20508977.753
   -966822.068 9   -753367.005 9  20703518.161    20703516.401
   1413483.109 5   1101416.954 4  22636489.234    22636487.491
   9769123.849 4   7612303.883 4  25300134.116    25300132.581
  10694370.972 4   8333272.881 4  25071237.835    25071234.256
  -4842175.047 4  -3773120.020 4  24184591.103    24184589.051
   -713374.039 4   -555875.677 4  24618366.317    24618366.004
 98 12  2  2  0 30.0000000  0  9G27G26G 7G 2G15G13G19G 4G 9
   6558369.576 7   5110416.764 6  21527452.321    21527450.966
   1115771.765 5    869434.719 5  23380244.830    23380242.957
  -4751773.283 9  -3702678.023 9  20503672.323    20503670.676
   -964903.593 9   -751872.086 9  20703883.216    20703881.421
   1458436.437 5   1136445.535 4  22645043.349    22645041.840
   9865201.336 4   7687169.444 4  25318417.442    25318416.066
  10807765.927 4   8421632.560 4  25092816.453    25092812.409
  -4955252.479 4  -3861232.222 4  24163073.217    24163070.466
   -814711.714 4   -634839.969 4  24599082.524    24599081.898
 98 12  2  2  1  0.0000000  0  9G27G26G 7G 2G15G13G19G 4G 9
   6646849.830 7   5179362.403 6  21544289.536    21544288.010
   1151856.837 5    897552.966 4  23387111.553    23387109.649
  -4779271.225 9  -3724104.974 9  20498439.606    20498438.026
   -962697.168 9   -750152.786 9  20704303.084    20704301.395
   1503977.144 5   1171931.816 4  22653709.464    22653708.146
   9961126.375 4   7761916.243 4  25336670.884    25336669.686
  10921217.755 4   8510036.535 4  25114405.647    25114402.370
  -5068305.409 4  -3949325.323 4  24141559.707    24141556.900
   -915866.283 4   -713661.567 4  24579833.673    24579832.552
 98 12  2  2  1 30.0000000  0  9G27G26G 7G 2G15G13G19G 4G 9
   6735686.147 6   5248585.483 6  21561194.471    21561192.928
   1188399.560 5    926027.818 4  23394065.434    23394063.422
  -4806372.071 9  -3745222.498 9  20493282.422    20493280.956
   -960216.335 9   -748219.656 9  20704775.176    20704773.410
   1550100.752 5   1207872.302 4  22662486.474    22662485.298
  10056898.052 4   7836543.543 4  25354894.892    25354894.857
  11034710.698 4   8598472.555 4  25136002.749    25135999.161
  -5181330.020 4  -4037396.394 4  24120051.831    24120049.283
  -1016846.468 4   -792347.293 4  24560617.542    24560616.464
 98 12  2  2  2  0.0000000  0  8G27G26G15G19G 7G 2G 4G 9
   6824875.598 6   5318083.728 6  21578166.674    21578165.235
   1225386.637 5    954848.925 4  23401103.818    23401101.932
   1596791.396 5   1244254.634 4  22671371.730    22671370.253
  11148233.062 4   8686931.476 4  25157605.412    25157601.654
  -4833088.576 9  -3766040.538 9  20488198.376    20488196.966
   -957482.622 9   -746089.479 9  20705295.373    20705293.578
  -5294334.505 4  -4125451.790 4  24098547.831    24098544.748
  -1117677.333 4   -870916.660 4  24541430.448    24541428.937
 98 12  2  2  2 30.0000000  0  8G27G 7G 2G26G15G19G 4G 9
   6914438.440 6   5387872.927 6  21595209.947    21595208.433
  -4859401.205 9  -3786543.867 9  20483191.261    20483189.857
   -954483.571 9   -743752.545 9  20705866.033    20705864.359
   1262835.584 5    984029.923 4  23408229.921    23408228.069
   1644064.630 5   1281090.929 4  22680367.830    22680365.813
  11261790.764 4   8775417.927 4  25179214.718    25179210.998
  -5407293.555 4  -4213471.782 4  24077052.313    24077048.773
  -1218360.753 4   -949371.116 4  24522270.833    24522269.550
 98 12  2  2  3  0.0000000  0  9G27G 7G 2G26G15G13G19G 4G 9
   7004376.297 6   5457954.356 6  21612324.540    21612323.127
  -4885323.180 9  -3806742.792 9  20478258.394    20478256.978
   -951246.974 9   -741230.509 9  20706482.018    20706480.343
   1300736.672 5   1013563.234 4  23415442.598    23415440.617
   1691910.696 5   1318373.586 4  22689472.706    22689470.430
         0.08714         0.12314  25409400.522    25409401.008
  11375368.142 4   8863919.722 4  25200827.782    25200823.695
  -5520205.495 4  -4301455.080 4  24055565.670    24055562.366
  -1318898.201 4  -1027711.851 4  24503138.729    24503137.606
 98 12  2  2  3 30.0000000  0  8G27G 7G 2G26G15G19G 4G 9
   7094720.525 6   5528352.444 6  21629516.415    21629515.129
  -4910869.584 9  -3826649.064 9  20473397.109    20473395.715
   -947788.906 9   -738535.905 9  20707140.061    20707138.272
   1339070.387 5   1043433.652 4  23422737.175    23422735.088
   1740327.901 5   1356101.283 4  22698686.084    22698683.947
  11488957.835 4   8952431.106 4  25222443.121    25222439.681
  -5633067.034 4  -4389399.110 4  24034088.792    24034085.970
  -1419292.882 4  -1105941.353 4  24484034.327    24484032.942
 98 12  2  2  4  0.0000000  0  9G27G 7G 2G26G15G13G19G 4G 9
   7185488.229 6   5599080.510 6  21646788.943    21646787.738
  -4936046.184 9  -3846267.179 9  20468606.217    20468604.648
   -944112.121 9   -735670.872 9  20707839.729    20707837.825
   1377819.499 5   1073627.758 4  23430110.525    23430108.876
   1789320.290 5   1394277.176 4  22708008.915    22708007.026
        -0.10814        -0.24514  25445625.315    25445624.824
  11602564.849 4   9040955.992 4  25244062.089    25244058.717
  -5745872.719 4  -4477299.621 4  24012622.367    24012619.357
  -1519536.486 4  -1184053.130 4  24464958.882    24464957.657
 98 12  2  2  4 30.0000000  0  8G27G26G15G 7G 2G19G 4G 9
   7276666.802 6   5670128.725 6  21664139.657    21664138.336
   1416966.010 5   1104131.522 4  23437559.973    23437558.218
   1838879.944 5   1432895.089 4  22717439.723    22717437.909
  -4960869.741 9  -3865610.195 9  20463882.457    20463880.741
   -940220.293 9   -732638.262 9  20708580.355    20708578.454
  11716175.629 4   9129483.821 4  25265682.146    25265677.675
  -5858627.060 4  -4565160.117 4  23991165.520    23991163.118
  -1619642.891 4  -1262058.011 4  24445909.436    24445907.977
 98 12  2  2  5  0.0000000  0  8G27G 7G 2G26G15G19G 4G 9
   7368246.884 6   5741489.816 6  21681566.871    21681565.450
  -4985350.053 9  -3884685.748 9  20459223.878    20459222.272
   -936112.381 9   -729437.280 9  20709361.963    20709360.152
   1456491.335 5   1134930.473 4  23445081.313    23445079.642
   1888996.713 5   1471947.118 4  22726976.295    22726974.764
  11829781.210 4   9218007.602 4  25287300.530    25287297.017
  -5971343.451 4  -4652991.050 4  23969715.987    23969713.727
  -1719606.677 4  -1339951.757 4  24426885.984    24426885.463
 98 12  2  2  5 30.0000000  0  8G27G26G15G19G 7G 2G 4G 9
   7460235.117 6   5813168.947 6  21699071.789    21699070.154
   1496410.866 5   1166036.598 4  23452677.759    23452676.124
   1939679.282 5   1511440.036 4  22736620.737    22736619.676
  11943388.444 4   9306532.661 4  25308920.347    25308916.414
  -5009467.402 9  -3903478.473 9  20454634.447    20454632.754
   -931753.191 9   -726040.503 9  20710191.495    20710189.738
  -6084005.555 4  -4740779.677 4  23948276.989    23948275.002
  -1819415.201 4  -1417724.559 4  24407893.663    24407892.300
 98 12  2  2  6  0.0000000  0  8G27G26G 7G 2G15G19G 4G 9
   7552611.790 6   5885150.752 6  21716650.653    21716648.848
   1536752.593 5   1197471.707 4  23460354.354    23460352.934
  -5033197.843 9  -3921969.712 9  20450118.829    20450117.055
   -927114.494 9   -722425.926 9  20711074.150    20711072.272
   1990928.390 5   1551374.414 4  22746373.357    22746371.823
  12057017.083 4   9395074.408 4  25330543.871    25330539.315
  -6196623.785 4  -4828534.118 4  23926845.913    23926844.620
  -1919062.011 4  -1495371.300 4  24388931.584    24388930.031
 98 12  2  2  6 30.0000000  0  7G27G26G15G 4G 9G 7G 2
   7645359.366 6   5957421.562 6  21734300.027    21734297.986
   1577541.920 5   1229255.597 4  23468116.280    23468115.007
   2042744.886 5   1591750.915 4  22756233.823    22756232.275
  -6309191.295 4  -4916249.029 4  23905424.929    23905423.771
  -2018528.986 4  -1572877.971 4  24370002.525    24370002.341
  -5056529.028 9  -3940149.842 9  20445678.942    20445677.232
   -922172.693 9   -718575.162 9  20712014.616    20712012.761
 98 12  2  2  7  0.0000000  0  7G27G 7G 2G26G15G 4G 9
   7738471.475 6   6029976.415 6  21752018.649    21752016.512
  -5079441.121 9  -3958003.405 9  20441318.955    20441317.200
   -916926.528 9   -714487.231 9  20713012.855    20713011.031
   1618798.118 5   1261403.282 4  23475967.053    23475965.908
   2095128.606 5   1632569.408 4  22766202.381    22766200.516
  -6421703.371 4  -5003920.752 4  23884014.419    23884013.253
  -2117777.369 4  -1650214.310 4  24351117.045    24351115.712
 98 12  2  2  7 30.0000000  0  8G27G15G26G 7G 2G19G 4G 9
   7831930.570 6   6102801.647 6  21769803.243    21769801.399
   2148066.066 5   1673819.384 4  22776276.074    22776274.113
   1660516.518 5   1293911.127 4  23483905.720    23483904.741
  -5101954.484 9  -3975546.268 9  20437034.757    20437032.918
   -911394.970 9   -710176.916 9  20714065.410    20714063.686
         0.45614        -0.38614  25395448.515    25395443.009
  -6534174.525 4  -5091560.572 4  23862611.448    23862610.787
  -2216827.500 4  -1727396.129 4  24332268.078    24332267.493
 98 12  2  2  8  0.0000000  0  7G27G26G15G 4G 7G 2G 9
   7925728.061 6   6175890.565 6  21787652.329    21787650.590
   1702686.135 5   1326770.566 4  23491930.042    23491929.146
   2201558.383 5   1715501.716 4  22786455.203    22786453.423
  -6646597.902 4  -5179163.165 4  23841217.775    23841217.403
  -5124073.113 9  -3992781.546 9  20432825.570    20432823.772
   -905589.958 9   -705653.515 9  20715169.992    20715168.200
  -2315682.441 4  -1804425.908 4  24313455.992    24313455.703
 98 12  2  2  8 30.0000000  0  7G27G15G26G 7G 2G 4G 9
   8019869.182 6   6249247.259 5  21805566.791    21805565.303
   2255605.072 5   1757616.020 4  22796739.780    22796738.209
   1745288.288 4   1359967.039 4  23500037.111    23500036.083
  -5145806.287 9  -4009716.470 9  20428689.891    20428688.277
   -899521.334 9   -700924.706 9  20716324.883    20716323.173
  -6758952.547 4  -5266712.197 4  23819837.804    23819836.981
  -2414349.107 4  -1881308.946 4  24294680.768    24294680.226
 98 12  2  2  9  0.0000000  0  8G27G 7G 2G26G15G19G 4G 9
   8114374.845 6   6322888.015 5  21823550.579    21823549.289
  -5167157.842 9  -4026354.027 9  20424626.676    20424625.156
   -893186.985 9   -695988.841 9  20717530.257    20717528.558
   1788316.537 4   1393495.537 4  23508224.969    23508223.927
   2310211.816 5   1800166.732 4  22807130.728    22807129.480
        -0.98814        -0.43614  25460370.410    25460368.837
  -6871232.540 4  -5354203.062 4  23798471.273    23798470.612
  -2512824.688 4  -1958043.080 4  24275941.343    24275940.667
 98 12  2  2  9 30.0000000  0  7G27G26G15G 4G 9G 7G 2
   8209234.324 6   6396804.464 5  21841601.724    21841600.523
   1831739.500 4   1427331.603 4  23516488.275    23516486.859
   2365363.803 5   1843142.303 4  22817625.508    22817624.684
  -6983446.289 4  -5441642.292 4  23777118.169    23777116.606
  -2611142.674 4  -2034654.421 4  24257231.074    24257230.949
  -5188158.531 9  -4042718.177 9  20420630.433    20420629.053
   -886595.459 9   -690852.582 9  20718784.608    20718782.930
 98 12  2  2 10  0.0000000  0  7G27G26G15G 4G 7G 2G 9
   8304459.921 6   6471006.190 5  21859722.419    21859721.472
   1875552.981 4   1461471.969 4  23524825.925    23524824.512
   2421061.523 5   1886543.123 4  22828224.587    22828223.543
  -7095574.423 4  -5529014.812 4  23755781.064    23755778.854
  -5208796.439 9  -4058799.644 9  20416703.147    20416701.855
   -879734.374 9   -685506.270 9  20720090.121    20720088.399
  -2709281.782 4  -2111126.388 4  24238556.492    24238555.869
 98 12  2  2 10 30.0000000  0  7G27G26G15G 4G 9G 7G 2
   8400065.970 6   6545504.369 5  21877915.559    21877914.635
   1919763.833 4   1495921.977 4  23533239.008    23533237.637
   2477313.469 5   1930375.811 4  22838928.913    22838927.985
  -7207613.572 4  -5616317.989 4  23734460.793    23734458.526
  -2807208.883 4  -2187433.115 4  24219921.400    24219920.180
  -5229065.663 9  -4074593.828 9  20412846.122    20412844.832
   -872593.269 9   -679941.758 9  20721448.958    20721447.340
 98 12  2  2 11  0.0000000  0  7G27G26G15G 4G 9G 7G 2
   8496057.097 6   6620302.600 5  21896182.002    21896181.143
   1964369.400 4   1530679.554 4  23541727.105    23541725.707
   2534117.652 5   1974638.814 4  22849738.337    22849737.691
  -7319570.340 4  -5703556.977 4  23713156.330    23713153.618
  -2904909.135 4  -2263563.104 4  24201329.047    24201329.116
  -5248976.432 9  -4090108.694 9  20409057.295    20409055.857
   -865179.124 9   -674164.491 9  20722859.808    20722858.207
 98 12  2  2 11 30.0000000  0  7G27G26G15G 4G 9G 7G 2
   8592421.824 6   6695391.962 5  21914519.538    21914518.617
   2009366.099 4   1565741.915 4  23550289.576    23550288.437
   2591466.452 5   2019326.201 4  22860651.658    22860650.861
  -7431442.617 4  -5790730.140 4  23691867.750    23691865.558
  -3002401.909 4  -2339531.418 4  24182777.638    24182776.437
  -5268527.569 9  -4105343.328 9  20405336.819    20405335.335
   -857499.652 9   -668180.480 9  20724321.131    20724319.474
 98 12  2  2 12  0.0000000  0  7G27G26G15G 4G 9G 7G 2
   8689141.885 6   6770758.221 5  21932924.821    21932923.748
   2054748.019 4   1601104.454 4  23558925.283    23558924.280
   2649345.388 5   2064426.679 4  22871665.884    22871664.893
  -7543238.806 4  -5877844.020 4  23670593.763    23670591.189
  -3099699.124 4  -2415347.325 4  24164262.184    24164261.613
  -5287721.573 9  -4120299.677 9  20401684.283    20401682.818
   -849568.099 9   -662000.047 9  20725830.489    20725828.904
 98 12  2  2 12 30.0000000  0  7G27G26G15G 4G 7G 2G 9
   8786206.384 6   6846392.883 5  21951395.654    21951394.496
   2100518.852 4   1636770.036 4  23567635.319    23567634.273
   2707756.690 5   2109941.991 4  22882781.324    22882780.036
  -7654954.249 4  -5964894.979 4  23649335.058    23649332.612
  -5306566.406 9  -4134983.942 9  20398098.093    20398096.586
   -841385.219 9   -655623.773 9  20727387.622    20727385.971
  -3196806.355 4  -2491015.243 4  24145783.083    24145782.292
 98 12  2  2 13  0.0000000  0  7G27G26G15G 4G 7G 2G 9
   8883609.788 6   6922291.609 5  21969931.219    21969929.663
   2146697.995 4   1672753.783 4  23576422.568    23576421.817
   2766705.028 5   2155875.773 4  22893998.989    22893997.394
  -7766568.523 4  -6051867.106 4  23628095.561    23628093.329
  -5325045.455 9  -4149383.180 9  20394581.761    20394580.247
   -832933.655 9   -649038.133 9  20728995.856    20728994.269
  -3293735.709 4  -2566544.518 4  24127339.127    24127337.339
 98 12  2  2 13 30.0000000  0  7G27G26G15G 4G 7G 2G 9
   8981317.124 6   6998427.168 5  21988524.492    21988522.820
   2193278.772 4   1709050.497 4  23585286.654    23585285.858
   2826174.900 5   2202215.937 4  22905315.885    22905314.126
  -7878086.714 4  -6138764.362 4  23606874.189    23606871.991
  -5343156.105 9  -4163495.356 9  20391135.277    20391133.836
   -824219.578 9   -642247.938 9  20730654.083    20730652.355
  -3390503.955 4  -2641948.282 4  24108923.655    24108922.911
 98 12  2  2 14  0.0000000  0  7G27G26G15G 4G 9G 7G 2
   9079320.393 6   7074793.331 5  22007174.083    22007172.146
   2240256.878 5   1745656.820 4  23594226.392    23594225.659
   2886164.704 4   2248961.244 4  22916731.159    22916729.672
  -7989512.590 4  -6225589.676 4  23585670.606    23585668.244
  -3487085.750 4  -2717206.757 4  24090545.381    24090543.918
  -5360897.989 9  -4177320.185 9  20387759.052    20387757.766
   -815249.439 9   -635258.217 9  20732361.151    20732359.245
 98 12  2  2 14 30.0000000  0  7G27G26G15G 4G 9G 7G 2
   9177632.343 6   7151400.026 5  22025882.286    22025880.313
   2287648.900 5   1782585.671 4  23603244.808    23603244.016
   2946686.786 5   2296121.309 4  22928247.928    22928246.846
  -8100833.655 4  -6312333.319 4  23564486.904    23564484.704
  -3583460.377 4  -2792303.814 4  24072205.725    24072204.718
  -5378256.500 9  -4190846.280 9  20384455.847    20384454.546
   -806012.056 9   -628060.252 9  20734119.000    20734117.087
 98 12  2  2 15  0.0000000  0  7G27G26G15G 4G 9G 7G 2
   9276272.383 5   7228262.376 5  22044652.788    22044650.963
   2335465.106 5   1819845.055 4  23612343.734    23612342.984
   3007747.676 5   2343701.227 4  22939867.409    22939866.813
  -8212047.243 4  -6398993.208 4  23543323.330    23543321.498
  -3679618.966 4  -2867232.536 4  24053907.437    24053906.393
  -5395215.574 9  -4204061.127 9  20381228.577    20381227.419
   -796500.614 9   -620648.736 9  20735928.991    20735927.152
 98 12  2  2 15 30.0000000  0  7G27G26G15G 4G 9G 7G 2
   9375245.033 6   7305383.898 5  22063486.747    22063485.049
   2383670.706 5   1857407.858 4  23621516.899    23621516.343
   3069331.369 5   2391688.526 4  22951586.391    22951585.746
  -8323172.695 4  -6485584.417 4  23522176.861    23522175.212
  -3775558.783 4  -2941990.791 4  24035650.667    24035649.361
  -5411800.488 9  -4216984.421 9  20378072.526    20378071.291
   -786734.855 9   -613039.044 9  20737787.360    20737785.519
 98 12  2  2 16  0.0000000  0  7G27G26G15G 4G 9G 7G 2
   9474561.541 6   7382773.361 5  22082385.901    22082384.381
   2432252.210 5   1895263.576 4  23630761.369    23630761.160
   3131439.502 5   2440084.479 4  22963405.409    22963404.537
  -8434200.296 4  -6572099.363 4  23501049.058    23501047.068
  -3871272.869 4  -3016573.167 4  24017436.813    24017435.499
  -5428024.514 9  -4229626.503 9  20374985.168    20374983.823
   -776699.867 9   -605219.565 9  20739696.781    20739694.937
 98 12  2  2 16 30.0000000  0  7G27G26G15G 4G 9G 7G 2
   9574215.303 5   7460425.617 5  22101349.381    22101348.042
   2481181.310 5   1933390.152 4  23640072.088    23640071.978
   3194056.690 5   2488877.102 4  22975320.865    22975320.344
  -8545132.353 4  -6658539.855 4  23479939.492    23479937.177
  -3966780.683 4  -3090994.803 4  23999262.097    23999261.063
  -5443915.215 9  -4242008.849 9  20371961.323    20371959.945
   -766393.566 9   -597188.676 9  20741657.969    20741656.146
 98 12  2  2 17  0.0000000  0  7G27G26G15G 4G 9G 7G 2
   9674223.474 5   7538354.034 5  22120380.197    22120378.901
   2530450.251 5   1971781.536 4  23649447.705    23649447.395
   3257194.301 5   2538075.258 4  22987335.045    22987334.875
  -8655956.649 4  -6744896.368 4  23458850.177    23458848.031
  -4062055.544 4  -3165234.942 4  23981132.001    23981130.968
  -5459458.121 9  -4254120.187 9  20369003.478    20369002.088
   -755793.467 9   -588928.848 9  20743675.182    20743673.341
 98 12  2  2 17 30.0000000  0  7G27G26G15G 4G 9G 7G 2
   9774567.144 5   7616543.876 5  22139474.947    22139473.576
   2580050.123 5   2010430.796 4  23658886.380    23658885.821
   3320848.562 4   2587675.990 4  22999448.137    22999447.707
  -8766664.683 4  -6831162.283 4  23437782.853    23437780.962
  -4157083.678 4  -3239282.815 4  23963048.918    23963047.537
  -5474646.851 9  -4265955.545 9  20366113.111    20366111.796
   -744894.570 9   -580436.194 9  20745749.273    20745747.336
 98 12  2  2 18  0.0000000  0  7G27G26G15G 4G 9G 7G 2
   9875236.712 5   7694987.677 5  22158631.638    22158630.433
   2629991.208 4   2049345.935 4  23668390.266    23668389.270
   3385018.528 4   2637678.567 4  23011659.111    23011658.545
  -8877246.474 4  -6917329.816 4  23416739.755    23416737.452
  -4251874.418 4  -3313145.709 4  23945010.655    23945009.510
  -5489469.423 9  -4277505.585 9  20363292.642    20363291.261
   -733699.879 9   -571713.049 9  20747879.575    20747877.654
 98 12  2  2 18 30.0000000  0  7G27G26G15G 4G 9G 7G 2
   9976244.665 5   7773695.158 5  22177852.857    22177851.654
   2680289.116 5   2088539.113 4  23677961.885    23677960.517
   3449706.404 4   2688084.710 4  23023969.126    23023967.969
  -8987708.037 4  -7003403.676 4  23395719.563    23395717.053
  -4346417.549 4  -3386815.679 4  23927019.359    23927018.149
  -5503908.102 9  -4288756.491 9  20360545.049    20360543.580
   -722222.009 9   -562769.247 9  20750063.661    20750061.817
 98 12  2  2 19  0.0000000  0  7G27G26G15G 4G 9G 7G 2
  10077590.778 5   7852666.151 5  22197138.201    22197137.188
   2730971.559 4   2128031.932 4  23687606.877    23687605.244
   3514919.305 4   2738899.969 4  23036378.460    23036377.745
  -9098036.106 4  -7089373.510 4  23374724.630    23374722.242
  -4440704.210 4  -3460285.788 4  23909077.823    23909076.036
  -5517935.248 9  -4299686.721 9  20357875.683    20357874.313
   -710463.127 9   -553606.471 8  20752301.282    20752299.497
 98 12  2  2 19 30.0000000  0  7G27G26G15G 4G 9G 7G 2
  10179254.831 5   7931884.900 5  22216484.079    22216483.152
   2782046.000 4   2167830.201 4  23697326.359    23697324.558
   3580647.878 4   2790117.049 4  23048886.243    23048885.480
  -9208218.574 4  -7175229.895 4  23353757.642    23353755.398
  -4534749.129 4  -3533567.527 4  23891181.160    23891179.473
  -5531578.601 9  -4310317.894 9  20355279.510    20355278.159
   -698435.904 9   -544234.607 8  20754589.961    20754588.172
 98 12  2  2 20  0.0000000  0  7G27G26G15G 4G 9G 7G 2
  10281231.648 5   8011347.350 5  22235889.628    22235888.670
   2833497.541 4   2207922.316 4  23707117.132    23707115.457
   3646879.778 4   2841726.328 4  23061490.268    23061489.327
  -9318262.264 4  -7260978.146 4  23332817.159    23332814.837
  -4628566.320 4  -3606671.839 4  23873328.450    23873327.167
  -5544861.785 9  -4320668.417 9  20352751.821    20352750.425
   -686148.027 9   -534659.639 8  20756928.339    20756926.488
 98 12  2  2 20 30.0000000  0  7G27G26G15G 4G 9G 7G 2
  10383508.202 5   8091043.343 5  22255352.339    22255351.216
   2885316.546 4   2248300.760 4  23716978.023    23716976.382
   3713608.082 4   2893722.409 4  23074188.549    23074187.463
  -9428172.749 4  -7346622.606 4  23311901.879    23311899.626
  -4722142.178 4  -3679588.038 4  23855522.085    23855519.988
  -5557791.891 9  -4330743.811 9  20350291.226    20350289.838
   -673587.478 9   -524872.198 8  20759318.553    20759316.620
 98 12  2  2 21  0.0000000  0  7G27G26G15G 4G 9G 7G 2
  10486067.284 5   8170959.471 5  22274868.756    22274867.165
   2937495.003 4   2288959.298 4  23726907.557    23726905.653
   3780832.968 4   2946105.453 4  23086980.750    23086979.678
  -9537939.281 4  -7432154.887 4  23291014.010    23291011.853
  -4815478.025 4  -3752317.253 4  23837760.075    23837758.260
  -5570373.292 9  -4340547.485 9  20347896.946    20347895.582
   -660736.953 9   -514858.797 8  20761763.770    20761761.938
 98 12  2  2 21 30.0000000  0  7G27G26G15G 4G 9G 7G 2
  10588923.270 5   8251106.955 5  22294441.895    22294440.379
   2990036.167 4   2329900.460 4  23736905.643    23736903.984
   3848557.572 4   2998877.878 4  23099868.541    23099867.078
  -9647556.897 4  -7517571.131 4  23270154.266    23270152.338
  -4908567.027 4  -3824854.081 4  23820046.118    23820044.320
  -5582607.356 9  -4350080.507 9  20345569.041    20345567.459
   -647582.968 9   -504608.935 8  20764266.840    20764265.206
 98 12  2  2 22  0.0000000  0  7G27G26G15G 4G 9G 7G 2
  10692081.219 5   8331489.741 5  22314072.247    22314071.010
   3042933.230 4   2371118.948 4  23746971.332    23746969.748
   3916779.741 4   3052038.016 4  23112850.648    23112849.075
  -9757043.831 4  -7602885.559 4  23249319.531    23249317.681
  -5001410.075 4  -3897199.267 4  23802378.625    23802376.915
  -5594469.433 9  -4359323.669 9  20343311.713    20343310.149
   -634119.288 9   -494117.754 8  20766828.932    20766827.283
 98 12  2  2 22 30.0000000  0  7G27G26G15G 4G 9G 7G 2
  10795534.693 5   8412102.808 5  22333758.847    22333757.507
   3096187.642 4   2412615.892 4  23757105.127    23757103.897
   3985496.091 4   3105583.231 4  23125926.964    23125925.472
  -9866397.108 4  -7688095.838 4  23228510.190    23228508.541
  -5094010.064 4  -3969355.054 4  23784757.202    23784755.565
  -5605963.975 9  -4368280.441 9  20341124.245    20341122.781
   -620351.194 9   -483389.366 8  20769448.953    20769447.263
 98 12  2  2 23  0.0000000  0  7G27G26G15G 4G 9G 7G 2
  10899278.881 5   8492942.398 5  22353500.882    22353499.479
   3149790.399 4   2454384.275 4  23767305.303    23767304.099
   4054701.339 4   3159509.400 4  23139096.198    23139094.797
  -9975603.900 4  -7773191.991 4  23207728.537    23207727.090
  -5186374.762 4  -4041327.485 4  23767180.975    23767179.153
  -5617108.698 9  -4376964.631 9  20339003.288    20339001.839
   -606294.839 9   -472436.363 8  20772123.864    20772122.172
 98 12  2  2 23 30.0000000  0  7G27G26G15G 4G 9G 7G 2
  11003328.994 5   8574020.381 5  22373300.995    22373299.727
   3203746.886 4   2496428.290 4  23777572.840    23777571.406
   4124406.339 4   3213824.985 4  23152360.498    23152358.982
 -10084642.114 4  -7858156.790 4  23186979.292    23186977.848
  -5278481.627 4  -4113098.996 4  23749653.089    23749652.022
  -5627893.285 9  -4385368.195 9  20336951.002    20336949.599
   -591937.937 9   -461249.168 8  20774855.920    20774854.153
 98 12  2  2 24  0.0000000  0  7G27G26G15G 4G 9G 7G 2
  11107656.612 5   8655314.614 5  22393153.915    22393152.439
   3258022.349 4   2538720.855 4  23787901.327    23787899.958
   4194597.358 4   3268519.281 4  23165717.040    23165715.628
 -10193518.864 4  -7942995.779 4  23166260.618    23166259.182
  -5370329.867 4  -4184668.997 4  23732175.480    23732173.525
  -5638329.540 9  -4393500.331 9  20334965.115    20334963.657
   -577285.315 9   -449831.542 9  20777644.135    20777642.455
 98 12  2  2 24 30.0000000  0  7G26G27G 7G 2G15G 4G 9
   3312614.855 4   2581260.465 4  23798289.893    23798288.235
  11212266.554 5   8736828.838 5  22413060.445    22413058.956
  -5648421.734 9  -4401364.368 9  20333044.714    20333043.334
   -562337.295 9   -438183.729 9  20780488.523    20780486.941
   4265277.004 4   3323594.327 4  23179166.456    23179165.820
 -10302200.767 4  -8027682.940 4  23145579.019    23145577.428
  -5461910.842 4  -4256030.723 4  23714747.799    23714746.568
 98 12  2  2 25  0.0000000  0  7G26G27G15G 4G 9G 7G 2
   3367522.172 4   2624045.385 4  23808738.399    23808737.125
  11317164.756 5   8818567.688 5  22433021.901    22433020.444
   4336443.951 4   3379049.084 4  23192709.333    23192707.923
 -10410691.661 4  -8112221.266 4  23124933.906    23124932.430
  -5553220.784 4  -4327181.266 4  23697372.248    23697371.080
  -5658158.919 9  -4408951.772 9  20331191.884    20331190.538
   -547088.757 9   -426301.748 9  20783390.196    20783388.540
 98 12  2  2 25 30.0000000  0  7G26G 7G 2G27G15G 4G 9
   3422754.411 4   2667083.492 4  23819248.926    23819247.280
  -5667523.325 9  -4416248.696 9  20329409.779    20329408.587
   -531536.265 9   -414182.918 9  20786349.750    20786348.056
  11422352.817 5   8900532.402 5  22453038.605    22453036.929
   4408094.976 4   3434881.041 4  23206344.130    23206343.459
 -10519007.539 4  -8196623.211 4  23104321.909    23104320.122
  -5644263.266 4  -4398123.390 4  23680047.298    23680045.817
 98 12  2  2 26  0.0000000  0  7G26G27G15G 4G 7G 2G 9
   3478310.533 4   2710373.976 4  23829820.864    23829819.535
  11527827.896 5   8982720.764 5  22473109.887    22473108.193
   4480222.435 4   3491084.257 4  23220069.508    23220068.928
 -10627148.354 4  -8280888.749 4  23083743.222    23083741.640
  -5676516.554 9  -4423256.394 9  20327698.358    20327697.233
   -515698.768 9   -401842.010 9  20789363.566    20789361.841
  -5735042.832 5  -4468860.661 4  23662772.449    23662771.178
 98 12  2  2 26 30.0000000  0  7G26G 7G 2G27G15G 4G 9
   3534206.030 4   2753928.910 4  23840457.441    23840456.240
  -5685144.539 9  -4429979.487 9  20326056.482    20326055.302
   -499587.478 9   -389287.755 9  20792429.357    20792427.708
  11633600.294 5   9065140.789 5  22493237.775    22493236.230
   4552827.827 4   3547659.886 4  23233886.212    23233885.094
 -10735116.060 4  -8365019.400 4  23063197.476    23063195.904
  -5825556.167 5  -4539390.470 4  23645548.402    23645546.954
 98 12  2  2 27  0.0000000  0  7G26G27G15G 4G 7G 2G 9
   3590442.117 4   2797749.237 4  23851158.702    23851157.414
  11739655.061 5   9147780.836 5  22513419.192    22513417.374
   4625906.483 4   3604604.291 4  23247792.810    23247791.738
 -10842935.400 4  -8449034.437 4  23042680.154    23042678.558
  -5693414.039 9  -4436423.240 9  20324482.811    20324481.602
   -483202.732 9   -376520.414 9  20795547.148    20795545.626
  -5915798.202 5  -4609708.883 4  23628375.820    23628374.382
 98 12  2  2 27 30.0000000  0  7G26G 7G 2G27G15G 4G 9
   3647021.362 4   2841836.962 4  23861925.226    23861923.953
  -5701320.177 9  -4442583.855 9  20322978.182    20322977.034
   -466542.297 9   -363538.252 9  20798717.597    20798716.102
  11845976.210 5   9230628.441 5  22533651.551    22533649.555
   4699462.580 4   3661920.723 4  23261790.084    23261788.562
 -10950586.412 4  -8532918.312 4  23022194.846    23022193.138
  -6005754.548 5  -4679804.691 4  23611257.773    23611256.131
 98 12  2  2 28  0.0000000  0  7G26G27G15G 4G 7G 2G 9
   3703928.833 4   2886180.448 4  23872754.294    23872753.170
  11952555.694 5   9313677.344 5  22553933.138    22553930.847
   4773487.074 4   3719602.145 4  23275876.873    23275875.348
 -11058065.946 4  -8616668.565 4  23001742.339    23001740.871
  -5708885.620 9  -4448478.993 9  20321538.405    20321537.179
   -449609.072 9   -350343.526 9  20801939.924    20801938.352
  -6095423.237 5  -4749676.350 4  23594194.370    23594192.942
 98 12  2  2 28 30.0000000  0  7G26G 7G 2G27G15G 4G 9
   3761168.645 4   2930782.908 4  23883646.579    23883645.607
  -5716121.707 9  -4454117.492 9  20320161.497    20320160.144
   -432394.256 9   -336929.380 9  20805215.870    20805214.234
  12059384.294 5   9396920.374 5  22574262.055    22574259.808
   4847967.660 4   3777638.958 4  23290049.980    23290048.476
 -11165384.679 4  -8700293.513 4  22981320.276    22981318.609
  -6184824.390 5  -4819339.544 4  23577181.850    23577180.466
 98 12  2  2 29  0.0000000  0  7G26G27G15G 4G 7G 2G 9
   3818745.072 4   2975647.668 4  23894602.597    23894601.983
  12166458.426 5   9480354.732 5  22594637.725    22594635.504
   4922905.246 4   3836031.879 4  23304310.074    23304308.614
 -11272523.594 4  -8783778.342 4  22960932.436    22960931.041
  -5723013.395 9  -4459487.628 9  20318850.170    20318848.726
   -414882.668 9   -323283.983 9  20808548.166    20808546.511
  -6273950.394 5  -4888788.344 4  23560222.099    23560220.066
 98 12  2  2 29 30.0000000  0  7G26G27G 7G 2G15G 4G 9
   3876661.334 4   3020777.231 4  23905623.220    23905622.938
  12273793.470 5   9563992.396 5  22615062.700    22615060.613
  -5729552.126 9  -4464582.732 9  20317605.974    20317604.568
   -397061.394 9   -309397.269 9  20811939.352    20811937.746
   4998303.639 4   3894783.871 4  23318657.724    23318656.665
 -11379467.160 5  -8867110.948 4  22940581.930    22940580.520
  -6362784.342 5  -4958009.569 4  23543317.001    23543315.687
 98 12  2  2 30  0.0000000  0  7G26G27G15G 7G 2G 4G 9
   3934908.454 4   3066164.607 4  23916707.432    23916707.023    12381406.536 5
   -879358.655 5   -214748.365    22635539.325
   5074156.415 4   3953889.929 4  23333092.389    23333090.994
  -5735747.174 9  -4469410.030 9  20316427.126    20316425.769
   -378925.109 9   -295265.094 9  20815390.641    20815388.980
 -11486228.497 5  -8950301.561 5  22920265.842    22920264.370
  -6451336.452 5  -5027011.188 4  23526466.382    23526464.606
 98 12  2  2 30 30.0000000  0  7G26G 7G 2G27G15G 4G 9
   3993471.291 4   3111797.991 4  23927851.617    23927851.141
  -5741590.453 9  -4473963.224 9  20315315.333    20315313.947
   -360481.561 9   -280893.492 9  20818900.338    20818898.697    12489276.933 5
   -795303.816 5   -194221.237    22656066.681
   5150459.870 4   4013347.163 4  23347612.153    23347611.173
 -11592812.626 5  -9033354.088 5  22899983.809    22899982.003
  -6539596.373 5  -5095785.124 4  23509670.911    23509669.285
 98 12  2  2 31  0.0000000  0  7G26G27G15G 7G 2G 4G 9
   4052305.137 4   3157642.548 4  23939047.674    23939047.221    12597385.049 5
   -711063.737 5   -173648.850    22676638.849
   5227204.688 4   4073148.322 4  23362216.246    23362215.076
  -5747091.196 9  -4478249.506 9  20314268.593    20314267.224
   -341743.272 9   -266292.220 9  20822466.070    20822464.554
 -11699229.710 5  -9116276.456 5  22879733.427    22879731.695
  -6627552.358 5  -5164322.237 4  23492933.397    23492932.002
 98 12  2  2 31 30.0000000  0  7G 7G 2G26G27G15G 4G 9
  -5752250.955 9  -4482270.090 9  20313286.611    20313285.358
   -322698.573 9   -251452.188 9  20826090.274    20826088.662
   4111410.598 4   3203698.748 4  23950295.626    23950294.505    12705740.821 5
   -626630.680 5   -153029.361    22697258.338
   5304398.782 4   4133299.562 4  23376905.686    23376904.792
 -11805465.769 5  -9199057.768 5  22859517.406    22859515.876
  -6715203.240 5  -5232621.604 4  23476253.797    23476252.565
 98 12  2  2 32  0.0000000  0  7G26G27G15G 7G 2G 4G 9
   4170796.108 4   3249973.173 4  23961596.560    23961595.100    12814349.691 5
   -542000.412 5   -132361.835    22717925.857
   5382048.997 4   4193806.230 4  23391681.859    23391680.812
  -5757056.380 9  -4486014.569 9  20312372.193    20312370.982
   -303345.516 9   -236371.877 9  20829772.987    20829771.324
 -11911490.160 5  -9281674.149 5  22839341.533    22839340.114
  -6802550.488 5  -5300684.378 4  23459632.152    23459631.130
 98 12  2  2 32 30.0000000  0  7G 7G 2G26G27G15G 4G 9
  -5761503.689 9  -4489479.994 9  20311525.981    20311524.786
   -283685.901 9   -221052.692 9  20833514.079    20833512.448
   4230464.052 4   3296467.667 4  23972950.941    23972949.160    12923205.573 5
   -457177.669 5   -111647.145    22738640.131
   5460155.211 4   4254668.221 4  23406545.001    23406543.723
 -12017287.059 5  -9364113.264 5  22819208.914    22819207.690
  -6889580.279 5  -5368499.784 4  23443070.719    23443069.645
 98 12  2  2 33  0.0000000  0  7G26G27G 7G 2G15G 4G 9
   4290426.845 4   3343191.912 4  23984361.192    23984359.813    13032315.036 5
   -372157.332 5    -90884.324    22759403.072
  -5765601.128 9  -4492672.791 9  20310746.191    20310745.020
   -263704.392 8   -205482.676 9  20837316.402    20837314.648
   5538716.761 4   4315885.013 4  23421494.739    23421493.482
 -12122843.113 5  -9446364.707 5  22799122.110    22799120.848
  -6976308.266 5  -5436080.027 4  23426566.799    23426565.744
 98 12  2  2 33 30.0000000  0  7G26G 7G 2G27G15G 4G 9
   4350708.436 4   3390164.571 4  23995832.604    23995830.664
  -5769352.613 9  -4495596.015 9  20310032.384    20310031.028
   -243404.531 8   -189664.597 9  20841179.309    20841177.561    13141673.992 5
   -286942.589 5    -70074.059    22780213.389
   5617725.374 4   4377450.167 4  23436529.433    23436528.646
 -12228156.251 5  -9528426.858 5  22779081.694    22779080.201
  -7062738.918 5  -5503428.573 4  23410119.491    23410118.362
 98 12  2  2 34  0.0000000  0  7G26G27G 7G 2G15G 4G 9
   4411301.866 4   3437380.231 4  24007363.224    24007361.625    13251268.268 5
   -201544.483 5    -49218.928    22801068.593
  -5772756.958 9  -4498248.739 9  20309384.555    20309383.119
   -222793.154 8   -173603.776 9  20845101.530    20845099.835
   5697176.484 4   4439360.123 4  23451648.561    23451647.581
 -12333239.346 5  -9610309.759 5  22759084.964    22759083.520
  -7148863.234 5  -5570538.422 4  23393730.476    23393729.589
 98 12  2  2 34 30.0000000  0  7G 7G 2G26G27G15G 4G 9
  -5775830.675 9  -4500643.831 9  20308799.614    20308798.222
   -201873.559 8   -157302.788 9  20849082.335    20849080.816
   4472190.950 4   3484826.262 4  24018950.156    24018947.853    13361074.747 5
   -115981.025 5    -28323.404    22821963.893
   5777060.991 4   4501607.793 4  23466850.101    23466849.152
 -12438117.322 5  -9692032.823 5  22739127.500    22739125.899
  -7234683.535 5  -5637411.373 4  23377399.960    23377398.442
 98 12  2  2 35  0.0000000  0  7G26G27G15G 7G 2G 4G 9
   4533376.181 4   3532503.058 4  24030593.442    24030591.317    13471095.767 5
    -30250.397 5     -7387.019    22842900.377
   5857377.320 4   4564191.944 4  23482134.150    23482132.816
  -5778574.431 9  -4502781.810 9  20308277.440    20308276.166
   -180646.864 9   -140762.496 9  20853121.549    20853120.077
 -12542788.281 5  -9773594.576 5  22719209.275    22719207.665
  -7320203.512 5  -5704050.301 4  23361125.745    23361124.737
 98 12  2  2 35 30.0000000  0  7G 7G 2G26G27G15G 4G 9
  -5780991.804 9  -4504665.464 9  20307817.443    20307816.150
   -159133.767 9   -123999.036 9  20857215.254    20857213.825
   4594840.921 4   3580397.656 4  24042289.960    24042287.542    13581337.086 5
     55651.887 5     13591.359    22863878.564
   5938117.936 4   4627106.700 4  23497498.647    23497496.964
 -12647249.758 5  -9854993.090 5  22699330.866    22699329.116
  -7405410.352 5  -5770445.233 4  23344911.739    23344910.155
 98 12  2  2 36  0.0000000  0  7G26G27G15G 7G 2G 4G 9
   4656574.202 4   3628501.510 4  24054037.186    24054035.168    13691811.960 5
    141736.170 5     34614.035    22884901.206
   6019288.734 4   4690356.680 4  23512944.814    23512943.275
  -5783075.846 9  -4506289.379 9  20307420.777    20307419.520
   -137336.266 9   -107013.964 9  20861363.316    20861361.882
 -12751485.562 5  -9936215.755 5  22679495.269    22679493.482
  -7490294.398 5  -5836588.630 4  23328758.661    23328757.483
 98 12  2  2 36 30.0000000  0  7G 7G 2G26G27G15G 4G 9
  -5784819.698 9  -4507648.213 9  20307088.841    20307087.661
   -115236.618 9    -89793.457 9  20865568.838    20865567.361
   4718594.727 4   3676829.195 4  24065839.056    24065837.633    13802548.777 5
    228024.565 5     55686.465    22905973.564
   6100897.999 4   4753948.314 4  23528474.502    23528472.749
 -12855471.370 5 -10017243.616 5  22659707.325    22659705.771
  -7574837.437 5  -5902466.308 4  23312670.535    23312669.307
 98 12  2  2 37  0.0000000  0  8G 7G 2G26G27G15G14G 4G 9
  -5786242.368 9  -4508756.774 9  20306818.163    20306816.965
    -92852.893 9    -72351.589 9  20869828.337    20869826.915
   4780883.505 4   3725365.900 4  24077692.243    24077690.804    13913532.158 5
    314505.100 5     76806.172    22927093.185
   6182925.920 4   4817866.177 4  23544083.937    23544082.175
        -0.92714        -0.09314  25502830.194    25502825.367
 -12959211.187 5 -10098079.799 5  22639966.169    22639964.915
  -7659045.713 5  -5968083.130 4  23296646.213    23296644.866
